Time,TemperatureF,DewpointF,PressureIn,WindDirection,WindDirectionDegrees,WindSpeedMPH,WindSpeedGustMPH,Humidity,HourlyPrecipIn,Conditions,Clouds,dailyrainin,SoftwareType,DateUTC
2013-04-29 00:00:00,44.1,16.1,0.00,ESE,112,2.7,4.0,32,0.00,,---,0.00,VWS V14.00,2013-04-29 06:00:00,
2013-04-29 00:03:00,44.2,17.0,0.00,ESE,109,3.1,5.4,33,0.00,,---,0.00,VWS V14.00,2013-04-29 06:03:00,
2013-04-29 00:04:00,44.2,17.0,0.00,ESE,111,2.7,2.7,33,0.00,,---,0.00,VWS V14.00,2013-04-29 06:04:00,
2013-04-29 00:05:00,44.2,17.0,0.00,ESE,118,3.1,3.1,33,0.00,,---,0.00,VWS V14.00,2013-04-29 06:05:00,
2013-04-29 00:08:00,44.2,17.0,0.00,ESE,116,2.7,3.1,33,0.00,,---,0.00,VWS V14.00,2013-04-29 06:08:00,
2013-04-29 00:09:00,44.2,17.0,0.00,ESE,116,2.2,2.7,33,0.00,,---,0.00,VWS V14.00,2013-04-29 06:09:00,
2013-04-29 00:10:00,44.1,16.8,0.00,ESE,111,3.6,4.0,33,0.00,,---,0.00,VWS V14.00,2013-04-29 06:10:00,
2013-04-29 00:11:00,44.1,16.8,0.00,SE,125,3.6,3.6,33,0.00,,---,0.00,VWS V14.00,2013-04-29 06:11:00,
2013-04-29 00:14:00,44.2,17.0,0.00,South,177,2.2,2.7,33,0.00,,---,0.00,VWS V14.00,2013-04-29 06:14:00,
2013-04-29 00:15:00,44.2,17.0,0.00,East,101,2.7,4.9,33,0.00,,---,0.00,VWS V14.00,2013-04-29 06:15:00,
2013-04-29 00:16:00,44.2,17.0,0.00,East,96,4.0,4.9,33,0.00,,---,0.00,VWS V14.00,2013-04-29 06:16:00,
2013-04-29 00:19:00,44.2,17.0,0.00,ESE,114,0.0,0.0,33,0.00,,---,0.00,VWS V14.00,2013-04-29 06:19:00,
2013-04-29 00:20:00,44.2,17.0,0.00,SSE,152,0.0,6.3,33,0.00,,---,0.00,VWS V14.00,2013-04-29 06:20:00,
2013-04-29 00:21:00,44.2,17.0,0.00,SSE,149,0.0,0.0,33,0.00,,---,0.00,VWS V14.00,2013-04-29 06:21:00,
2013-04-29 00:24:00,44.2,17.0,0.00,ESE,108,2.7,2.7,33,0.00,,---,0.00,VWS V14.00,2013-04-29 06:24:00,
2013-04-29 00:25:00,44.2,17.0,0.00,ESE,117,0.0,2.7,33,0.00,,---,0.00,VWS V14.00,2013-04-29 06:25:00,
2013-04-29 00:26:00,44.2,17.7,0.00,ESE,117,0.0,0.0,34,0.00,,---,0.00,VWS V14.00,2013-04-29 06:26:00,
2013-04-29 00:29:00,44.2,17.7,0.00,East,101,0.0,4.0,34,0.00,,---,0.00,VWS V14.00,2013-04-29 06:29:00,
2013-04-29 00:30:00,44.2,17.7,0.00,SE,124,3.1,3.1,34,0.00,,---,0.00,VWS V14.00,2013-04-29 06:30:00,
2013-04-29 00:31:00,44.2,17.7,0.00,East,99,2.7,2.7,34,0.00,,---,0.00,VWS V14.00,2013-04-29 06:31:00,
2013-04-29 00:34:00,44.2,17.7,0.00,ESE,103,2.7,3.6,34,0.00,,---,0.00,VWS V14.00,2013-04-29 06:34:00,
2013-04-29 00:35:00,44.2,17.7,0.00,ESE,102,0.0,4.0,34,0.00,,---,0.00,VWS V14.00,2013-04-29 06:35:00,
2013-04-29 00:36:00,44.2,17.7,0.00,ESE,102,4.0,4.0,34,0.00,,---,0.00,VWS V14.00,2013-04-29 06:36:00,
2013-04-29 00:39:00,44.4,18.5,0.00,SE,130,2.7,2.7,35,0.00,,---,0.00,VWS V14.00,2013-04-29 06:39:00,
2013-04-29 00:40:00,44.4,18.5,0.00,ESE,116,2.7,3.1,35,0.00,,---,0.00,VWS V14.00,2013-04-29 06:40:00,
2013-04-29 00:41:00,44.4,18.5,0.00,SSE,157,2.7,3.1,35,0.00,,---,0.00,VWS V14.00,2013-04-29 06:41:00,
2013-04-29 00:42:00,44.4,18.5,0.00,SE,133,3.1,3.6,35,0.00,,---,0.00,VWS V14.00,2013-04-29 06:42:00,
2013-04-29 00:44:00,44.4,18.5,0.00,SE,131,3.1,6.3,35,0.00,,---,0.00,VWS V14.00,2013-04-29 06:44:00,
2013-04-29 00:45:00,44.4,18.5,0.00,SE,126,2.7,3.1,35,0.00,,---,0.00,VWS V14.00,2013-04-29 06:45:00,
2013-04-29 00:46:00,44.4,18.5,0.00,ESE,110,2.2,2.2,35,0.00,,---,0.00,VWS V14.00,2013-04-29 06:46:00,
2013-04-29 00:47:00,44.4,19.1,0.00,ESE,121,3.6,3.6,36,0.00,,---,0.00,VWS V14.00,2013-04-29 06:47:00,
2013-04-29 00:49:00,44.4,18.5,0.00,East,101,3.6,3.6,35,0.00,,---,0.00,VWS V14.00,2013-04-29 06:49:00,
2013-04-29 00:50:00,44.4,19.1,0.00,East,87,3.6,3.6,36,0.00,,---,0.00,VWS V14.00,2013-04-29 06:50:00,
2013-04-29 00:51:00,44.4,19.1,0.00,East,81,3.6,4.0,36,0.00,,---,0.00,VWS V14.00,2013-04-29 06:51:00,
2013-04-29 00:52:00,44.6,19.3,0.00,ESE,110,4.0,4.0,36,0.00,,---,0.00,VWS V14.00,2013-04-29 06:52:00,
2013-04-29 00:54:00,44.6,19.3,0.00,ESE,102,3.1,5.8,36,0.00,,---,0.00,VWS V14.00,2013-04-29 06:54:00,
2013-04-29 00:55:00,44.6,19.3,0.00,East,82,5.4,5.4,36,0.00,,---,0.00,VWS V14.00,2013-04-29 06:55:00,
2013-04-29 00:56:00,44.6,19.3,0.00,ESE,117,4.5,4.5,36,0.00,,---,0.00,VWS V14.00,2013-04-29 06:56:00,
2013-04-29 00:57:00,44.6,19.3,0.00,ESE,118,3.1,3.6,36,0.00,,---,0.00,VWS V14.00,2013-04-29 06:57:00,
2013-04-29 00:59:00,44.6,19.3,0.00,SE,124,4.0,5.8,36,0.00,,---,0.00,VWS V14.00,2013-04-29 06:59:00,
2013-04-29 01:00:00,44.6,20.0,0.00,SE,141,5.8,5.8,37,0.00,,---,0.00,VWS V14.00,2013-04-29 07:00:00,
2013-04-29 01:01:00,44.6,20.0,0.00,East,88,3.1,6.3,37,0.00,,---,0.00,VWS V14.00,2013-04-29 07:01:00,
2013-04-29 01:02:00,44.6,20.0,0.00,ESE,104,5.4,5.4,37,0.00,,---,0.00,VWS V14.00,2013-04-29 07:02:00,
2013-04-29 01:04:00,44.6,20.0,0.00,East,80,3.6,5.4,37,0.00,,---,0.00,VWS V14.00,2013-04-29 07:04:00,
2013-04-29 01:05:00,44.6,20.0,0.00,ESE,122,5.8,5.8,37,0.00,,---,0.00,VWS V14.00,2013-04-29 07:05:00,
2013-04-29 01:06:00,44.6,20.0,0.00,SE,131,4.0,5.8,37,0.00,,---,0.00,VWS V14.00,2013-04-29 07:06:00,
2013-04-29 01:07:00,44.6,20.0,0.00,SSW,197,0.0,0.0,37,0.00,,---,0.00,VWS V14.00,2013-04-29 07:07:00,
2013-04-29 01:09:00,44.6,20.0,0.00,ESE,114,2.2,4.0,37,0.00,,---,0.00,VWS V14.00,2013-04-29 07:09:00,
2013-04-29 01:10:00,44.6,20.0,0.00,ESE,114,0.0,2.2,37,0.00,,---,0.00,VWS V14.00,2013-04-29 07:10:00,
2013-04-29 01:11:00,44.6,20.0,0.00,ESE,113,0.0,0.0,37,0.00,,---,0.00,VWS V14.00,2013-04-29 07:11:00,
2013-04-29 01:12:00,44.6,20.0,0.00,ESE,111,0.0,0.0,37,0.00,,---,0.00,VWS V14.00,2013-04-29 07:12:00,
2013-04-29 01:14:00,44.6,20.0,0.00,East,82,4.0,4.0,37,0.00,,---,0.00,VWS V14.00,2013-04-29 07:14:00,
2013-04-29 01:15:00,44.6,20.0,0.00,East,86,0.0,2.2,37,0.00,,---,0.00,VWS V14.00,2013-04-29 07:15:00,
2013-04-29 01:16:00,44.6,20.0,0.00,East,85,0.0,2.2,37,0.00,,---,0.00,VWS V14.00,2013-04-29 07:16:00,
2013-04-29 01:17:00,44.6,20.0,0.00,East,87,0.0,0.0,37,0.00,,---,0.00,VWS V14.00,2013-04-29 07:17:00,
2013-04-29 01:19:00,44.6,20.0,0.00,East,85,0.0,0.0,37,0.00,,---,0.00,VWS V14.00,2013-04-29 07:19:00,
2013-04-29 01:20:00,44.6,20.0,0.00,ESE,119,4.9,6.3,37,0.00,,---,0.00,VWS V14.00,2013-04-29 07:20:00,
2013-04-29 01:21:00,44.6,20.0,0.00,ESE,109,3.1,6.3,37,0.00,,---,0.00,VWS V14.00,2013-04-29 07:21:00,
2013-04-29 01:22:00,44.4,20.4,0.00,East,99,2.7,2.7,38,0.00,,---,0.00,VWS V14.00,2013-04-29 07:22:00,
2013-04-29 01:26:00,44.4,20.4,0.00,SW,221,0.0,3.6,38,0.00,,---,0.00,VWS V14.00,2013-04-29 07:26:00,
2013-04-29 01:27:00,44.4,20.4,0.00,SW,221,0.0,0.0,38,0.00,,---,0.00,VWS V14.00,2013-04-29 07:27:00,
2013-04-29 01:28:00,44.4,20.4,0.00,SSE,166,0.0,0.0,38,0.00,,---,0.00,VWS V14.00,2013-04-29 07:28:00,
2013-04-29 01:31:00,44.4,20.4,0.00,ESE,105,0.0,0.0,38,0.00,,---,0.00,VWS V14.00,2013-04-29 07:31:00,
2013-04-29 01:32:00,44.4,20.4,0.00,ESE,108,5.4,5.4,38,0.00,,---,0.00,VWS V14.00,2013-04-29 07:32:00,
2013-04-29 01:33:00,44.4,20.4,0.00,ESE,117,5.4,6.3,38,0.00,,---,0.00,VWS V14.00,2013-04-29 07:33:00,
2013-04-29 01:36:00,44.4,20.4,0.00,SE,124,3.1,3.6,38,0.00,,---,0.00,VWS V14.00,2013-04-29 07:36:00,
2013-04-29 01:37:00,44.4,20.4,0.00,ESE,111,2.2,5.4,38,0.00,,---,0.00,VWS V14.00,2013-04-29 07:37:00,
2013-04-29 01:38:00,44.2,20.3,0.00,South,171,3.1,3.1,38,0.00,,---,0.00,VWS V14.00,2013-04-29 07:38:00,
2013-04-29 01:41:00,44.2,20.3,0.00,South,177,0.0,0.0,38,0.00,,---,0.00,VWS V14.00,2013-04-29 07:41:00,
2013-04-29 01:42:00,44.2,20.3,0.00,South,177,0.0,0.0,38,0.00,,---,0.00,VWS V14.00,2013-04-29 07:42:00,
2013-04-29 01:43:00,44.2,20.3,0.00,SSW,208,0.0,0.0,38,0.00,,---,0.00,VWS V14.00,2013-04-29 07:43:00,
2013-04-29 01:46:00,44.2,20.3,0.00,SW,221,2.2,2.7,38,0.00,,---,0.00,VWS V14.00,2013-04-29 07:46:00,
2013-04-29 01:47:00,44.2,20.3,0.00,SW,221,0.0,0.0,38,0.00,,---,0.00,VWS V14.00,2013-04-29 07:47:00,
2013-04-29 01:48:00,44.2,20.3,0.00,SW,221,0.0,0.0,38,0.00,,---,0.00,VWS V14.00,2013-04-29 07:48:00,
2013-04-29 01:51:00,44.2,20.3,0.00,SW,221,0.0,0.0,38,0.00,,---,0.00,VWS V14.00,2013-04-29 07:51:00,
2013-04-29 01:52:00,44.1,20.1,0.00,SW,221,0.0,0.0,38,0.00,,---,0.00,VWS V14.00,2013-04-29 07:52:00,
2013-04-29 01:53:00,44.1,20.1,0.00,SW,219,0.0,0.0,38,0.00,,---,0.00,VWS V14.00,2013-04-29 07:53:00,
2013-04-29 01:56:00,44.1,20.1,0.00,SW,220,0.0,0.0,38,0.00,,---,0.00,VWS V14.00,2013-04-29 07:56:00,
2013-04-29 01:57:00,44.1,20.1,0.00,SW,216,0.0,0.0,38,0.00,,---,0.00,VWS V14.00,2013-04-29 07:57:00,
2013-04-29 01:58:00,44.1,20.1,0.00,SW,219,0.0,0.0,38,0.00,,---,0.00,VWS V14.00,2013-04-29 07:58:00,
2013-04-29 02:01:00,44.1,20.1,0.00,SW,227,0.0,0.0,38,0.00,,---,0.00,VWS V14.00,2013-04-29 08:01:00,
2013-04-29 02:02:00,44.1,20.1,0.00,SW,226,0.0,0.0,38,0.00,,---,0.00,VWS V14.00,2013-04-29 08:02:00,
2013-04-29 02:03:00,43.9,19.9,0.00,SW,227,0.0,0.0,38,0.00,,---,0.00,VWS V14.00,2013-04-29 08:03:00,
2013-04-29 02:06:00,43.9,19.9,0.00,SW,230,0.0,0.0,38,0.00,,---,0.00,VWS V14.00,2013-04-29 08:06:00,
2013-04-29 02:07:00,43.9,19.9,0.00,SW,226,0.0,0.0,38,0.00,,---,0.00,VWS V14.00,2013-04-29 08:07:00,
2013-04-29 02:08:00,43.7,19.8,0.00,SW,230,0.0,0.0,38,0.00,,---,0.00,VWS V14.00,2013-04-29 08:08:00,
2013-04-29 02:11:00,43.7,19.8,0.00,SW,230,0.0,0.0,38,0.00,,---,0.00,VWS V14.00,2013-04-29 08:11:00,
2013-04-29 02:12:00,43.7,19.8,0.00,SW,230,0.0,0.0,38,0.00,,---,0.00,VWS V14.00,2013-04-29 08:12:00,
2013-04-29 02:13:00,43.7,19.8,0.00,SW,229,0.0,0.0,38,0.00,,---,0.00,VWS V14.00,2013-04-29 08:13:00,
2013-04-29 02:16:00,43.5,19.6,0.00,West,273,0.0,0.0,38,0.00,,---,0.00,VWS V14.00,2013-04-29 08:16:00,
2013-04-29 02:17:00,43.5,19.6,0.00,West,277,0.0,0.0,38,0.00,,---,0.00,VWS V14.00,2013-04-29 08:17:00,
2013-04-29 02:18:00,43.5,19.6,0.00,West,277,0.0,0.0,38,0.00,,---,0.00,VWS V14.00,2013-04-29 08:18:00,
2013-04-29 02:19:00,43.3,19.5,0.00,West,277,0.0,0.0,38,0.00,,---,0.00,VWS V14.00,2013-04-29 08:19:00,
2013-04-29 02:21:00,43.3,19.5,0.00,West,277,0.0,0.0,38,0.00,,---,0.00,VWS V14.00,2013-04-29 08:21:00,
2013-04-29 02:22:00,43.3,19.5,0.00,West,277,0.0,0.0,38,0.00,,---,0.00,VWS V14.00,2013-04-29 08:22:00,
2013-04-29 02:23:00,43.3,19.5,0.00,West,277,0.0,0.0,38,0.00,,---,0.00,VWS V14.00,2013-04-29 08:23:00,
2013-04-29 02:24:00,43.3,19.5,0.00,West,277,0.0,0.0,38,0.00,,---,0.00,VWS V14.00,2013-04-29 08:24:00,
2013-04-29 02:26:00,43.2,19.3,0.00,West,277,0.0,0.0,38,0.00,,---,0.00,VWS V14.00,2013-04-29 08:26:00,
2013-04-29 02:27:00,43.2,19.3,0.00,West,277,0.0,0.0,38,0.00,,---,0.00,VWS V14.00,2013-04-29 08:27:00,
2013-04-29 02:28:00,43.2,19.3,0.00,West,277,0.0,0.0,38,0.00,,---,0.00,VWS V14.00,2013-04-29 08:28:00,
2013-04-29 02:29:00,43.2,19.3,0.00,West,277,0.0,0.0,38,0.00,,---,0.00,VWS V14.00,2013-04-29 08:29:00,
2013-04-29 02:31:00,43.0,19.1,0.00,West,276,0.0,0.0,38,0.00,,---,0.00,VWS V14.00,2013-04-29 08:31:00,
2013-04-29 02:32:00,43.0,19.1,0.00,West,276,0.0,0.0,38,0.00,,---,0.00,VWS V14.00,2013-04-29 08:32:00,
2013-04-29 02:33:00,43.0,19.1,0.00,West,276,0.0,0.0,38,0.00,,---,0.00,VWS V14.00,2013-04-29 08:33:00,
2013-04-29 02:35:00,43.0,19.1,0.00,West,277,0.0,0.0,38,0.00,,---,0.00,VWS V14.00,2013-04-29 08:35:00,
2013-04-29 02:36:00,42.8,19.0,0.00,West,276,0.0,0.0,38,0.00,,---,0.00,VWS V14.00,2013-04-29 08:36:00,
2013-04-29 02:37:00,42.8,19.0,0.00,West,276,0.0,0.0,38,0.00,,---,0.00,VWS V14.00,2013-04-29 08:37:00,
2013-04-29 02:38:00,42.8,19.0,0.00,West,276,0.0,0.0,38,0.00,,---,0.00,VWS V14.00,2013-04-29 08:38:00,
2013-04-29 02:40:00,42.8,19.0,0.00,West,279,0.0,0.0,38,0.00,,---,0.00,VWS V14.00,2013-04-29 08:40:00,
2013-04-29 02:42:00,42.6,19.4,0.00,WNW,282,0.0,0.0,39,0.00,,---,0.00,VWS V14.00,2013-04-29 08:42:00,
2013-04-29 02:43:00,42.6,19.4,0.00,West,281,0.0,0.0,39,0.00,,---,0.00,VWS V14.00,2013-04-29 08:43:00,
2013-04-29 02:45:00,42.4,19.2,0.00,WNW,282,0.0,0.0,39,0.00,,---,0.00,VWS V14.00,2013-04-29 08:45:00,
2013-04-29 02:47:00,42.4,19.2,0.00,West,279,0.0,0.0,39,0.00,,---,0.00,VWS V14.00,2013-04-29 08:47:00,
2013-04-29 02:48:00,42.4,19.2,0.00,WNW,282,0.0,0.0,39,0.00,,---,0.00,VWS V14.00,2013-04-29 08:48:00,
2013-04-29 02:50:00,42.3,19.1,0.00,West,281,0.0,0.0,39,0.00,,---,0.00,VWS V14.00,2013-04-29 08:50:00,
2013-04-29 02:52:00,42.1,19.5,0.00,WSW,251,0.0,0.0,40,0.00,,---,0.00,VWS V14.00,2013-04-29 08:52:00,
2013-04-29 02:53:00,41.9,19.4,0.00,WSW,252,0.0,0.0,40,0.00,,---,0.00,VWS V14.00,2013-04-29 08:53:00,
2013-04-29 02:54:00,41.9,19.4,0.00,WSW,252,0.0,0.0,40,0.00,,---,0.00,VWS V14.00,2013-04-29 08:54:00,
2013-04-29 02:55:00,41.9,19.4,0.00,WSW,252,0.0,0.0,40,0.00,,---,0.00,VWS V14.00,2013-04-29 08:55:00,
2013-04-29 02:57:00,41.7,19.2,0.00,WSW,251,0.0,0.0,40,0.00,,---,0.00,VWS V14.00,2013-04-29 08:57:00,
2013-04-29 02:59:00,41.7,19.2,0.00,WSW,252,0.0,0.0,40,0.00,,---,0.00,VWS V14.00,2013-04-29 08:59:00,
2013-04-29 03:00:00,41.7,18.6,0.00,WSW,252,0.0,0.0,39,0.00,,---,0.00,VWS V14.00,2013-04-29 09:00:00,
2013-04-29 03:02:00,41.7,18.6,0.00,WSW,252,0.0,0.0,39,0.00,,---,0.00,VWS V14.00,2013-04-29 09:02:00,
2013-04-29 03:04:00,41.7,18.6,0.00,WSW,251,0.0,0.0,39,0.00,,---,0.00,VWS V14.00,2013-04-29 09:04:00,
2013-04-29 03:05:00,41.5,18.4,0.00,WSW,252,0.0,0.0,39,0.00,,---,0.00,VWS V14.00,2013-04-29 09:05:00,
2013-04-29 03:07:00,41.5,18.4,0.00,WSW,252,0.0,0.0,39,0.00,,---,0.00,VWS V14.00,2013-04-29 09:07:00,
2013-04-29 03:09:00,41.5,18.4,0.00,WSW,252,0.0,0.0,39,0.00,,---,0.00,VWS V14.00,2013-04-29 09:09:00,
2013-04-29 03:10:00,41.4,18.3,0.00,WSW,252,0.0,0.0,39,0.00,,---,0.00,VWS V14.00,2013-04-29 09:10:00,
2013-04-29 03:12:00,41.2,18.1,0.00,WSW,252,0.0,0.0,39,0.00,,---,0.00,VWS V14.00,2013-04-29 09:12:00,
2013-04-29 03:13:00,41.2,18.1,0.00,WSW,252,0.0,0.0,39,0.00,,---,0.00,VWS V14.00,2013-04-29 09:13:00,
2013-04-29 03:14:00,41.2,18.1,0.00,WSW,252,0.0,0.0,39,0.00,,---,0.00,VWS V14.00,2013-04-29 09:14:00,
2013-04-29 03:15:00,41.2,18.1,0.00,WSW,252,0.0,0.0,39,0.00,,---,0.00,VWS V14.00,2013-04-29 09:15:00,
2013-04-29 03:17:00,41.2,18.1,0.00,ESE,115,2.7,3.6,39,0.00,,---,0.00,VWS V14.00,2013-04-29 09:17:00,
2013-04-29 03:18:00,41.0,18.0,0.00,ESE,115,2.2,3.6,39,0.00,,---,0.00,VWS V14.00,2013-04-29 09:18:00,
2013-04-29 03:19:00,41.0,18.0,0.00,ESE,115,0.0,0.0,39,0.00,,---,0.00,VWS V14.00,2013-04-29 09:19:00,
2013-04-29 03:20:00,41.0,18.0,0.00,ESE,115,0.0,0.0,39,0.00,,---,0.00,VWS V14.00,2013-04-29 09:20:00,
2013-04-29 03:22:00,40.8,18.4,0.00,ESE,115,0.0,0.0,40,0.00,,---,0.00,VWS V14.00,2013-04-29 09:22:00,
2013-04-29 03:23:00,40.8,18.4,0.00,ESE,115,0.0,0.0,40,0.00,,---,0.00,VWS V14.00,2013-04-29 09:23:00,
2013-04-29 03:25:00,40.6,18.2,0.00,ESE,115,0.0,0.0,40,0.00,,---,0.00,VWS V14.00,2013-04-29 09:25:00,
2013-04-29 03:28:00,40.6,18.2,0.00,ESE,115,0.0,0.0,40,0.00,,---,0.00,VWS V14.00,2013-04-29 09:28:00,
2013-04-29 03:30:00,40.5,18.1,0.00,East,87,2.2,2.2,40,0.00,,---,0.00,VWS V14.00,2013-04-29 09:30:00,
2013-04-29 03:31:00,40.5,18.1,0.00,ESE,110,3.1,4.5,40,0.00,,---,0.00,VWS V14.00,2013-04-29 09:31:00,
2013-04-29 03:33:00,40.5,18.1,0.00,ESE,106,0.0,0.0,40,0.00,,---,0.00,VWS V14.00,2013-04-29 09:33:00,
2013-04-29 03:35:00,40.3,17.9,0.00,ESE,110,0.0,0.0,40,0.00,,---,0.00,VWS V14.00,2013-04-29 09:35:00,
2013-04-29 03:36:00,40.3,17.9,0.00,ESE,110,0.0,0.0,40,0.00,,---,0.00,VWS V14.00,2013-04-29 09:36:00,
2013-04-29 03:38:00,40.1,17.7,0.00,ESE,110,0.0,0.0,40,0.00,,---,0.00,VWS V14.00,2013-04-29 09:38:00,
2013-04-29 03:40:00,40.1,17.7,0.00,ESE,110,0.0,0.0,40,0.00,,---,0.00,VWS V14.00,2013-04-29 09:40:00,
2013-04-29 03:41:00,39.9,17.6,0.00,ESE,110,0.0,0.0,40,0.00,,---,0.00,VWS V14.00,2013-04-29 09:41:00,
2013-04-29 03:43:00,39.9,17.6,0.00,ESE,106,0.0,0.0,40,0.00,,---,0.00,VWS V14.00,2013-04-29 09:43:00,
2013-04-29 03:44:00,39.9,17.6,0.00,ESE,109,0.0,0.0,40,0.00,,---,0.00,VWS V14.00,2013-04-29 09:44:00,
2013-04-29 03:45:00,39.9,17.6,0.00,ESE,110,0.0,0.0,40,0.00,,---,0.00,VWS V14.00,2013-04-29 09:45:00,
2013-04-29 03:46:00,39.9,17.6,0.00,ESE,110,0.0,0.0,40,0.00,,---,0.00,VWS V14.00,2013-04-29 09:46:00,
2013-04-29 03:48:00,39.7,17.4,0.00,ESE,110,0.0,0.0,40,0.00,,---,0.00,VWS V14.00,2013-04-29 09:48:00,
2013-04-29 03:49:00,39.7,17.4,0.00,ESE,106,0.0,0.0,40,0.00,,---,0.00,VWS V14.00,2013-04-29 09:49:00,
2013-04-29 03:50:00,39.7,17.4,0.00,ESE,108,0.0,0.0,40,0.00,,---,0.00,VWS V14.00,2013-04-29 09:50:00,
2013-04-29 03:51:00,39.6,17.2,0.00,ESE,109,0.0,0.0,40,0.00,,---,0.00,VWS V14.00,2013-04-29 09:51:00,
2013-04-29 03:53:00,39.6,17.2,0.00,ESE,110,0.0,0.0,40,0.00,,---,0.00,VWS V14.00,2013-04-29 09:53:00,
2013-04-29 03:54:00,39.6,17.2,0.00,ESE,109,0.0,0.0,40,0.00,,---,0.00,VWS V14.00,2013-04-29 09:54:00,
2013-04-29 03:55:00,39.4,17.1,0.00,ESE,109,0.0,0.0,40,0.00,,---,0.00,VWS V14.00,2013-04-29 09:55:00,
2013-04-29 03:56:00,39.4,17.1,0.00,ESE,109,0.0,0.0,40,0.00,,---,0.00,VWS V14.00,2013-04-29 09:56:00,
2013-04-29 03:58:00,39.4,17.1,0.00,ESE,106,0.0,0.0,40,0.00,,---,0.00,VWS V14.00,2013-04-29 09:58:00,
2013-04-29 03:59:00,39.4,17.1,0.00,ESE,110,0.0,0.0,40,0.00,,---,0.00,VWS V14.00,2013-04-29 09:59:00,
2013-04-29 04:00:00,39.2,16.9,0.00,ESE,110,0.0,0.0,40,0.00,,---,0.00,VWS V14.00,2013-04-29 10:00:00,
2013-04-29 04:01:00,39.2,16.9,0.00,ESE,110,0.0,0.0,40,0.00,,---,0.00,VWS V14.00,2013-04-29 10:01:00,
2013-04-29 04:03:00,39.2,17.5,0.00,ESE,108,0.0,0.0,41,0.00,,---,0.00,VWS V14.00,2013-04-29 10:03:00,
2013-04-29 04:04:00,39.0,17.3,0.00,ESE,110,0.0,0.0,41,0.00,,---,0.00,VWS V14.00,2013-04-29 10:04:00,
2013-04-29 04:05:00,39.0,17.3,0.00,ENE,59,0.0,3.6,41,0.00,,---,0.00,VWS V14.00,2013-04-29 10:05:00,
2013-04-29 04:06:00,39.0,17.3,0.00,ENE,59,0.0,0.0,41,0.00,,---,0.00,VWS V14.00,2013-04-29 10:06:00,
2013-04-29 04:08:00,38.8,17.2,0.00,NE,52,0.0,0.0,41,0.00,,---,0.00,VWS V14.00,2013-04-29 10:08:00,
2013-04-29 04:09:00,38.8,17.7,0.00,NE,52,0.0,0.0,42,0.00,,---,0.00,VWS V14.00,2013-04-29 10:09:00,
2013-04-29 04:10:00,38.8,17.2,0.00,NE,52,0.0,0.0,41,0.00,,---,0.00,VWS V14.00,2013-04-29 10:10:00,
2013-04-29 04:11:00,38.7,17.0,0.00,ENE,59,0.0,0.0,41,0.00,,---,0.00,VWS V14.00,2013-04-29 10:11:00,
2013-04-29 04:13:00,38.7,17.6,0.00,ENE,59,0.0,0.0,42,0.00,,---,0.00,VWS V14.00,2013-04-29 10:13:00,
2013-04-29 04:14:00,38.7,17.6,0.00,ENE,59,0.0,0.0,42,0.00,,---,0.00,VWS V14.00,2013-04-29 10:14:00,
2013-04-29 04:16:00,38.7,17.0,0.00,ENE,59,0.0,0.0,41,0.00,,---,0.00,VWS V14.00,2013-04-29 10:16:00,
2013-04-29 04:18:00,38.5,17.4,0.00,ENE,59,0.0,0.0,42,0.00,,---,0.00,VWS V14.00,2013-04-29 10:18:00,
2013-04-29 04:19:00,38.5,17.4,0.00,ENE,59,0.0,0.0,42,0.00,,---,0.00,VWS V14.00,2013-04-29 10:19:00,
2013-04-29 04:21:00,38.5,17.4,0.00,ENE,59,0.0,0.0,42,0.00,,---,0.00,VWS V14.00,2013-04-29 10:21:00,
2013-04-29 04:22:00,38.5,17.4,0.00,ENE,59,0.0,0.0,42,0.00,,---,0.00,VWS V14.00,2013-04-29 10:22:00,
2013-04-29 04:23:00,38.3,17.2,0.00,ENE,59,0.0,0.0,42,0.00,,---,0.00,VWS V14.00,2013-04-29 10:23:00,
2013-04-29 04:24:00,38.3,17.2,0.00,ENE,59,0.0,0.0,42,0.00,,---,0.00,VWS V14.00,2013-04-29 10:24:00,
2013-04-29 04:26:00,38.3,17.2,0.00,ENE,59,0.0,0.0,42,0.00,,---,0.00,VWS V14.00,2013-04-29 10:26:00,
2013-04-29 04:27:00,38.3,17.2,0.00,ENE,59,0.0,0.0,42,0.00,,---,0.00,VWS V14.00,2013-04-29 10:27:00,
2013-04-29 04:28:00,38.1,17.1,0.00,ENE,59,0.0,0.0,42,0.00,,---,0.00,VWS V14.00,2013-04-29 10:28:00,
2013-04-29 04:29:00,38.1,17.1,0.00,ENE,59,0.0,0.0,42,0.00,,---,0.00,VWS V14.00,2013-04-29 10:29:00,
2013-04-29 04:31:00,38.1,17.1,0.00,ENE,59,0.0,0.0,42,0.00,,---,0.00,VWS V14.00,2013-04-29 10:31:00,
2013-04-29 04:32:00,38.1,17.1,0.00,ENE,59,0.0,0.0,42,0.00,,---,0.00,VWS V14.00,2013-04-29 10:32:00,
2013-04-29 04:33:00,37.9,16.9,0.00,WNW,290,0.0,0.0,42,0.00,,---,0.00,VWS V14.00,2013-04-29 10:33:00,
2013-04-29 04:34:00,37.9,16.9,0.00,WNW,285,0.0,0.0,42,0.00,,---,0.00,VWS V14.00,2013-04-29 10:34:00,
2013-04-29 04:37:00,37.9,17.5,0.00,WNW,285,0.0,0.0,43,0.00,,---,0.00,VWS V14.00,2013-04-29 10:37:00,
2013-04-29 04:38:00,37.8,17.3,0.00,West,265,0.0,0.0,43,0.00,,---,0.00,VWS V14.00,2013-04-29 10:38:00,
2013-04-29 04:39:00,37.8,17.3,0.00,West,265,0.0,0.0,43,0.00,,---,0.00,VWS V14.00,2013-04-29 10:39:00,
2013-04-29 04:42:00,37.8,17.3,0.00,West,265,0.0,0.0,43,0.00,,---,0.00,VWS V14.00,2013-04-29 10:42:00,
2013-04-29 04:44:00,37.6,17.1,0.00,West,265,0.0,0.0,43,0.00,,---,0.00,VWS V14.00,2013-04-29 10:44:00,
2013-04-29 04:47:00,37.6,17.1,0.00,West,265,0.0,0.0,43,0.00,,---,0.00,VWS V14.00,2013-04-29 10:47:00,
2013-04-29 04:49:00,37.6,17.1,0.00,WSW,252,0.0,0.0,43,0.00,,---,0.00,VWS V14.00,2013-04-29 10:49:00,
2013-04-29 04:52:00,37.4,17.0,0.00,ESE,119,0.0,0.0,43,0.00,,---,0.00,VWS V14.00,2013-04-29 10:52:00,
2013-04-29 04:53:00,37.4,17.5,0.00,ESE,115,0.0,0.0,44,0.00,,---,0.00,VWS V14.00,2013-04-29 10:53:00,
2013-04-29 04:54:00,37.4,17.0,0.00,ESE,119,0.0,0.0,43,0.00,,---,0.00,VWS V14.00,2013-04-29 10:54:00,
2013-04-29 04:55:00,37.4,17.0,0.00,ESE,119,0.0,0.0,43,0.00,,---,0.00,VWS V14.00,2013-04-29 10:55:00,
2013-04-29 04:57:00,37.2,17.3,0.00,ESE,121,0.0,0.0,44,0.00,,---,0.00,VWS V14.00,2013-04-29 10:57:00,
2013-04-29 04:58:00,37.2,17.3,0.00,ESE,120,0.0,0.0,44,0.00,,---,0.00,VWS V14.00,2013-04-29 10:58:00,
2013-04-29 04:59:00,37.2,17.3,0.00,ESE,117,0.0,0.0,44,0.00,,---,0.00,VWS V14.00,2013-04-29 10:59:00,
2013-04-29 05:00:00,37.2,17.3,0.00,ESE,121,0.0,0.0,44,0.00,,---,0.00,VWS V14.00,2013-04-29 11:00:00,
2013-04-29 05:02:00,37.0,17.2,0.00,ESE,121,0.0,0.0,44,0.00,,---,0.00,VWS V14.00,2013-04-29 11:02:00,
2013-04-29 05:03:00,37.0,17.2,0.00,ESE,121,0.0,0.0,44,0.00,,---,0.00,VWS V14.00,2013-04-29 11:03:00,
2013-04-29 05:05:00,37.0,17.2,0.00,ESE,118,0.0,0.0,44,0.00,,---,0.00,VWS V14.00,2013-04-29 11:05:00,
2013-04-29 05:07:00,37.0,17.7,0.00,ESE,120,0.0,0.0,45,0.00,,---,0.00,VWS V14.00,2013-04-29 11:07:00,
2013-04-29 05:08:00,36.9,17.5,0.00,ESE,122,0.0,0.0,45,0.00,,---,0.00,VWS V14.00,2013-04-29 11:08:00,
2013-04-29 05:10:00,36.9,17.5,0.00,ESE,120,0.0,0.0,45,0.00,,---,0.00,VWS V14.00,2013-04-29 11:10:00,
2013-04-29 05:12:00,36.9,17.5,0.00,ESE,121,0.0,0.0,45,0.00,,---,0.00,VWS V14.00,2013-04-29 11:12:00,
2013-04-29 05:13:00,36.9,17.5,0.00,ESE,120,0.0,0.0,45,0.00,,---,0.00,VWS V14.00,2013-04-29 11:13:00,
2013-04-29 05:15:00,36.7,17.9,0.00,SW,222,0.0,0.0,46,0.00,,---,0.00,VWS V14.00,2013-04-29 11:15:00,
2013-04-29 05:17:00,36.7,17.9,0.00,SW,223,0.0,0.0,46,0.00,,---,0.00,VWS V14.00,2013-04-29 11:17:00,
2013-04-29 05:18:00,36.7,17.9,0.00,SW,222,0.0,0.0,46,0.00,,---,0.00,VWS V14.00,2013-04-29 11:18:00,
2013-04-29 05:20:00,36.7,17.4,0.00,SW,219,0.0,0.0,45,0.00,,---,0.00,VWS V14.00,2013-04-29 11:20:00,
2013-04-29 05:23:00,36.5,17.7,0.00,SW,223,0.0,0.0,46,0.00,,---,0.00,VWS V14.00,2013-04-29 11:23:00,
2013-04-29 05:25:00,36.5,17.7,0.00,SW,221,0.0,0.0,46,0.00,,---,0.00,VWS V14.00,2013-04-29 11:25:00,
2013-04-29 05:28:00,36.3,17.5,0.00,SW,217,0.0,0.0,46,0.00,,---,0.00,VWS V14.00,2013-04-29 11:28:00,
2013-04-29 05:30:00,36.3,17.5,0.00,WNW,291,0.0,0.0,46,0.00,,---,0.00,VWS V14.00,2013-04-29 11:30:00,
2013-04-29 05:33:00,36.3,17.5,0.00,WNW,295,0.0,0.0,46,0.00,,---,0.00,VWS V14.00,2013-04-29 11:33:00,
2013-04-29 05:34:00,36.3,18.0,0.00,WNW,295,0.0,0.0,47,0.00,,---,0.00,VWS V14.00,2013-04-29 11:34:00,
2013-04-29 05:35:00,36.1,17.9,0.00,WNW,295,0.0,0.0,47,0.00,,---,0.00,VWS V14.00,2013-04-29 11:35:00,
2013-04-29 05:36:00,36.1,17.9,0.00,WNW,295,0.0,0.0,47,0.00,,---,0.00,VWS V14.00,2013-04-29 11:36:00,
2013-04-29 05:38:00,36.1,17.9,0.00,WNW,295,0.0,0.0,47,0.00,,---,0.00,VWS V14.00,2013-04-29 11:38:00,
2013-04-29 05:39:00,36.1,17.9,0.00,WNW,295,0.0,0.0,47,0.00,,---,0.00,VWS V14.00,2013-04-29 11:39:00,
2013-04-29 05:40:00,36.1,17.9,0.00,WNW,295,0.0,0.0,47,0.00,,---,0.00,VWS V14.00,2013-04-29 11:40:00,
2013-04-29 05:41:00,36.1,17.9,0.00,WNW,295,0.0,0.0,47,0.00,,---,0.00,VWS V14.00,2013-04-29 11:41:00,
2013-04-29 05:43:00,36.1,17.9,0.00,WNW,293,0.0,0.0,47,0.00,,---,0.00,VWS V14.00,2013-04-29 11:43:00,
2013-04-29 05:44:00,36.0,17.7,0.00,WNW,298,3.1,3.1,47,0.00,,---,0.00,VWS V14.00,2013-04-29 11:44:00,
2013-04-29 05:45:00,36.0,17.7,0.00,WNW,298,0.0,2.2,47,0.00,,---,0.00,VWS V14.00,2013-04-29 11:45:00,
2013-04-29 05:46:00,36.0,17.7,0.00,WNW,298,0.0,2.2,47,0.00,,---,0.00,VWS V14.00,2013-04-29 11:46:00,
2013-04-29 05:48:00,36.0,18.2,0.00,WNW,299,0.0,2.2,48,0.00,,---,0.00,VWS V14.00,2013-04-29 11:48:00,
2013-04-29 05:49:00,36.0,18.2,0.00,WNW,298,2.7,2.7,48,0.00,,---,0.00,VWS V14.00,2013-04-29 11:49:00,
2013-04-29 05:50:00,36.0,18.2,0.00,WNW,298,0.0,2.2,48,0.00,,---,0.00,VWS V14.00,2013-04-29 11:50:00,
2013-04-29 05:51:00,36.0,18.2,0.00,WNW,298,0.0,0.0,48,0.00,,---,0.00,VWS V14.00,2013-04-29 11:51:00,
2013-04-29 05:53:00,36.0,18.7,0.00,WNW,298,0.0,0.0,49,0.00,,---,0.00,VWS V14.00,2013-04-29 11:53:00,
2013-04-29 05:54:00,36.0,18.7,0.00,WNW,299,0.0,0.0,49,0.00,,---,0.00,VWS V14.00,2013-04-29 11:54:00,
2013-04-29 05:56:00,36.0,18.7,0.00,WNW,298,0.0,0.0,49,0.00,,---,0.00,VWS V14.00,2013-04-29 11:56:00,
2013-04-29 05:59:00,35.8,18.5,0.00,WNW,298,0.0,0.0,49,0.00,,---,0.00,VWS V14.00,2013-04-29 11:59:00,
2013-04-29 06:01:00,35.8,18.5,0.00,WNW,298,0.0,0.0,49,0.00,,---,0.00,VWS V14.00,2013-04-29 12:01:00,
2013-04-29 06:04:00,35.8,18.5,0.00,WNW,298,0.0,0.0,49,0.00,,---,0.00,VWS V14.00,2013-04-29 12:04:00,
2013-04-29 06:06:00,35.8,18.5,0.00,WNW,298,0.0,0.0,49,0.00,,---,0.00,VWS V14.00,2013-04-29 12:06:00,
2013-04-29 06:09:00,35.8,18.5,0.00,WNW,298,0.0,0.0,49,0.00,,---,0.00,VWS V14.00,2013-04-29 12:09:00,
2013-04-29 06:10:00,35.8,18.5,0.00,WNW,295,0.0,0.0,49,0.00,,---,0.00,VWS V14.00,2013-04-29 12:10:00,
2013-04-29 06:11:00,35.8,18.5,0.00,WNW,298,0.0,0.0,49,0.00,,---,0.00,VWS V14.00,2013-04-29 12:11:00,
2013-04-29 06:14:00,35.8,18.5,0.00,WNW,298,0.0,0.0,49,0.00,,---,0.00,VWS V14.00,2013-04-29 12:14:00,
2013-04-29 06:15:00,35.8,18.5,0.00,WNW,298,0.0,0.0,49,0.00,,---,0.00,VWS V14.00,2013-04-29 12:15:00,
2013-04-29 06:16:00,35.8,18.5,0.00,WNW,298,0.0,0.0,49,0.00,,---,0.00,VWS V14.00,2013-04-29 12:16:00,
2013-04-29 06:19:00,35.8,18.5,0.00,WNW,298,0.0,0.0,49,0.00,,---,0.00,VWS V14.00,2013-04-29 12:19:00,
2013-04-29 06:20:00,35.8,18.5,0.00,WNW,298,0.0,0.0,49,0.00,,---,0.00,VWS V14.00,2013-04-29 12:20:00,
2013-04-29 06:21:00,35.8,18.5,0.00,WNW,298,0.0,0.0,49,0.00,,---,0.00,VWS V14.00,2013-04-29 12:21:00,
2013-04-29 06:22:00,35.8,18.5,0.00,WNW,298,0.0,0.0,49,0.00,,---,0.00,VWS V14.00,2013-04-29 12:22:00,
2013-04-29 06:24:00,35.8,18.5,0.00,WNW,298,0.0,0.0,49,0.00,,---,0.00,VWS V14.00,2013-04-29 12:24:00,
2013-04-29 06:25:00,35.8,18.5,0.00,WNW,298,0.0,0.0,49,0.00,,---,0.00,VWS V14.00,2013-04-29 12:25:00,
2013-04-29 06:26:00,35.8,18.5,0.00,WNW,298,0.0,0.0,49,0.00,,---,0.00,VWS V14.00,2013-04-29 12:26:00,
2013-04-29 06:27:00,35.8,18.5,0.00,WNW,298,0.0,0.0,49,0.00,,---,0.00,VWS V14.00,2013-04-29 12:27:00,
2013-04-29 06:30:00,35.8,18.5,0.00,WNW,289,0.0,0.0,49,0.00,,---,0.00,VWS V14.00,2013-04-29 12:30:00,
2013-04-29 06:31:00,35.8,18.5,0.00,WNW,289,0.0,0.0,49,0.00,,---,0.00,VWS V14.00,2013-04-29 12:31:00,
2013-04-29 06:32:00,35.8,18.5,0.00,WNW,289,0.0,0.0,49,0.00,,---,0.00,VWS V14.00,2013-04-29 12:32:00,
2013-04-29 06:35:00,35.6,18.8,0.00,WSW,238,0.0,0.0,50,0.00,,---,0.00,VWS V14.00,2013-04-29 12:35:00,
2013-04-29 06:36:00,35.6,18.8,0.00,WSW,238,0.0,0.0,50,0.00,,---,0.00,VWS V14.00,2013-04-29 12:36:00,
2013-04-29 06:37:00,35.6,18.8,0.00,WSW,238,0.0,0.0,50,0.00,,---,0.00,VWS V14.00,2013-04-29 12:37:00,
2013-04-29 06:40:00,35.6,18.8,0.00,WSW,238,0.0,0.0,50,0.00,,---,0.00,VWS V14.00,2013-04-29 12:40:00,
2013-04-29 06:41:00,35.6,18.8,0.00,WSW,238,0.0,0.0,50,0.00,,---,0.00,VWS V14.00,2013-04-29 12:41:00,
2013-04-29 06:42:00,35.6,18.8,0.00,SW,231,0.0,0.0,50,0.00,,---,0.00,VWS V14.00,2013-04-29 12:42:00,
2013-04-29 06:45:00,35.6,18.8,0.00,WSW,238,0.0,0.0,50,0.00,,---,0.00,VWS V14.00,2013-04-29 12:45:00,
2013-04-29 06:46:00,35.6,18.8,0.00,WSW,238,0.0,0.0,50,0.00,,---,0.00,VWS V14.00,2013-04-29 12:46:00,
2013-04-29 06:47:00,35.6,18.8,0.00,WSW,238,0.0,0.0,50,0.00,,---,0.00,VWS V14.00,2013-04-29 12:47:00,
2013-04-29 06:50:00,35.6,18.8,0.00,WSW,238,0.0,2.7,50,0.00,,---,0.00,VWS V14.00,2013-04-29 12:50:00,
2013-04-29 06:51:00,35.6,18.8,0.00,WSW,238,0.0,2.7,50,0.00,,---,0.00,VWS V14.00,2013-04-29 12:51:00,
2013-04-29 06:52:00,35.6,18.8,0.00,SW,235,0.0,0.0,50,0.00,,---,0.00,VWS V14.00,2013-04-29 12:52:00,
2013-04-29 06:53:00,35.8,19.0,0.00,WSW,238,0.0,0.0,50,0.00,,---,0.00,VWS V14.00,2013-04-29 12:53:00,
2013-04-29 06:55:00,35.8,19.0,0.00,SW,224,0.0,0.0,50,0.00,,---,0.00,VWS V14.00,2013-04-29 12:55:00,
2013-04-29 06:56:00,35.8,19.0,0.00,SSE,157,3.1,3.1,50,0.00,,---,0.00,VWS V14.00,2013-04-29 12:56:00,
2013-04-29 06:57:00,35.8,19.0,0.00,WSW,249,0.0,3.6,50,0.00,,---,0.00,VWS V14.00,2013-04-29 12:57:00,
2013-04-29 06:58:00,36.0,19.1,0.00,WSW,254,0.0,2.7,50,0.00,,---,0.00,VWS V14.00,2013-04-29 12:58:00,
2013-04-29 07:00:00,36.1,19.8,0.00,WSW,254,0.0,0.0,51,0.00,,---,0.00,VWS V14.00,2013-04-29 13:00:00,
2013-04-29 07:01:00,36.1,19.3,0.00,WSW,254,0.0,0.0,50,0.00,,---,0.00,VWS V14.00,2013-04-29 13:01:00,
2013-04-29 07:02:00,36.1,19.3,0.00,WSW,254,0.0,0.0,50,0.00,,---,0.00,VWS V14.00,2013-04-29 13:02:00,
2013-04-29 07:03:00,36.1,19.3,0.00,WSW,254,0.0,0.0,50,0.00,,---,0.00,VWS V14.00,2013-04-29 13:03:00,
2013-04-29 07:05:00,36.1,19.8,0.00,WSW,254,0.0,0.0,51,0.00,,---,0.00,VWS V14.00,2013-04-29 13:05:00,
2013-04-29 07:06:00,36.1,19.8,0.00,WSW,254,0.0,0.0,51,0.00,,---,0.00,VWS V14.00,2013-04-29 13:06:00,
2013-04-29 07:07:00,36.1,19.8,0.00,WSW,254,0.0,0.0,51,0.00,,---,0.00,VWS V14.00,2013-04-29 13:07:00,
2013-04-29 07:08:00,36.3,19.9,0.00,WSW,254,0.0,0.0,51,0.00,,---,0.00,VWS V14.00,2013-04-29 13:08:00,
2013-04-29 07:10:00,36.5,20.1,0.00,WSW,254,0.0,0.0,51,0.00,,---,0.00,VWS V14.00,2013-04-29 13:10:00,
2013-04-29 07:11:00,36.5,20.1,0.00,WSW,254,0.0,0.0,51,0.00,,---,0.00,VWS V14.00,2013-04-29 13:11:00,
2013-04-29 07:12:00,36.7,20.3,0.00,WSW,254,0.0,0.0,51,0.00,,---,0.00,VWS V14.00,2013-04-29 13:12:00,
2013-04-29 07:13:00,36.7,20.3,0.00,WSW,254,0.0,0.0,51,0.00,,---,0.00,VWS V14.00,2013-04-29 13:13:00,
2013-04-29 07:16:00,36.9,20.4,0.00,WSW,254,0.0,0.0,51,0.00,,---,0.00,VWS V14.00,2013-04-29 13:16:00,
2013-04-29 07:17:00,36.9,20.4,0.00,WSW,254,0.0,0.0,51,0.00,,---,0.00,VWS V14.00,2013-04-29 13:17:00,
2013-04-29 07:19:00,36.9,20.4,0.00,WSW,254,0.0,0.0,51,0.00,,---,0.00,VWS V14.00,2013-04-29 13:19:00,
2013-04-29 07:21:00,36.9,20.4,0.00,WSW,254,0.0,0.0,51,0.00,,---,0.00,VWS V14.00,2013-04-29 13:21:00,
2013-04-29 07:22:00,37.0,20.6,0.00,WSW,251,0.0,0.0,51,0.00,,---,0.00,VWS V14.00,2013-04-29 13:22:00,
2013-04-29 07:24:00,37.2,20.8,0.00,WSW,251,0.0,0.0,51,0.00,,---,0.00,VWS V14.00,2013-04-29 13:24:00,
2013-04-29 07:26:00,37.4,20.5,0.00,WSW,251,0.0,0.0,50,0.00,,---,0.00,VWS V14.00,2013-04-29 13:26:00,
2013-04-29 07:27:00,37.4,20.5,0.00,WSW,251,0.0,0.0,50,0.00,,---,0.00,VWS V14.00,2013-04-29 13:27:00,
2013-04-29 07:28:00,37.6,20.6,0.00,WNW,290,0.0,0.0,50,0.00,,---,0.00,VWS V14.00,2013-04-29 13:28:00,
2013-04-29 07:29:00,37.6,20.6,0.00,WNW,291,0.0,0.0,50,0.00,,---,0.00,VWS V14.00,2013-04-29 13:29:00,
2013-04-29 07:31:00,37.6,20.6,0.00,WNW,292,2.2,2.2,50,0.00,,---,0.00,VWS V14.00,2013-04-29 13:31:00,
2013-04-29 07:32:00,37.8,20.8,0.00,WNW,292,2.2,2.7,50,0.00,,---,0.00,VWS V14.00,2013-04-29 13:32:00,
2013-04-29 07:33:00,37.8,20.8,0.00,WNW,292,0.0,0.0,50,0.00,,---,0.00,VWS V14.00,2013-04-29 13:33:00,
2013-04-29 07:34:00,37.9,21.0,0.00,SW,222,0.0,3.6,50,0.00,,---,0.00,VWS V14.00,2013-04-29 13:34:00,
2013-04-29 07:36:00,38.1,20.7,0.00,SW,222,0.0,0.0,49,0.00,,---,0.00,VWS V14.00,2013-04-29 13:36:00,
2013-04-29 07:37:00,38.1,21.1,0.00,WNW,297,2.2,2.2,50,0.00,,---,0.00,VWS V14.00,2013-04-29 13:37:00,
2013-04-29 07:38:00,38.3,20.8,0.00,West,261,3.1,3.1,49,0.00,,---,0.00,VWS V14.00,2013-04-29 13:38:00,
2013-04-29 07:39:00,38.5,21.0,0.00,SW,233,0.0,0.0,49,0.00,,---,0.00,VWS V14.00,2013-04-29 13:39:00,
2013-04-29 07:41:00,38.5,21.0,0.00,SSE,155,0.0,0.0,49,0.00,,---,0.00,VWS V14.00,2013-04-29 13:41:00,
2013-04-29 07:42:00,38.5,21.0,0.00,SW,224,0.0,0.0,49,0.00,,---,0.00,VWS V14.00,2013-04-29 13:42:00,
2013-04-29 07:43:00,38.7,21.2,0.00,SSW,196,0.0,0.0,49,0.00,,---,0.00,VWS V14.00,2013-04-29 13:43:00,
2013-04-29 07:44:00,38.7,21.2,0.00,SSW,197,0.0,0.0,49,0.00,,---,0.00,VWS V14.00,2013-04-29 13:44:00,
2013-04-29 07:46:00,38.8,21.3,0.00,SSW,197,0.0,0.0,49,0.00,,---,0.00,VWS V14.00,2013-04-29 13:46:00,
2013-04-29 07:47:00,38.8,21.3,0.00,South,186,0.0,0.0,49,0.00,,---,0.00,VWS V14.00,2013-04-29 13:47:00,
2013-04-29 07:48:00,39.0,21.5,0.00,SSE,158,0.0,0.0,49,0.00,,---,0.00,VWS V14.00,2013-04-29 13:48:00,
2013-04-29 07:49:00,39.2,21.2,0.00,ESE,110,2.2,2.7,48,0.00,,---,0.00,VWS V14.00,2013-04-29 13:49:00,
2013-04-29 07:51:00,39.4,21.3,0.00,ENE,78,3.6,4.0,48,0.00,,---,0.00,VWS V14.00,2013-04-29 13:51:00,
2013-04-29 07:52:00,39.4,20.8,0.00,ESE,105,3.6,3.6,47,0.00,,---,0.00,VWS V14.00,2013-04-29 13:52:00,
2013-04-29 07:53:00,39.4,20.8,0.00,ESE,104,3.6,3.6,47,0.00,,---,0.00,VWS V14.00,2013-04-29 13:53:00,
2013-04-29 07:55:00,39.6,21.0,0.00,ENE,77,3.1,3.6,47,0.00,,---,0.00,VWS V14.00,2013-04-29 13:55:00,
2013-04-29 07:56:00,39.7,21.2,0.00,ENE,74,0.0,0.0,47,0.00,,---,0.00,VWS V14.00,2013-04-29 13:56:00,
2013-04-29 07:57:00,39.7,20.7,0.00,ENE,74,0.0,0.0,46,0.00,,---,0.00,VWS V14.00,2013-04-29 13:57:00,
2013-04-29 07:58:00,39.9,20.8,0.00,SW,224,0.0,0.0,46,0.00,,---,0.00,VWS V14.00,2013-04-29 13:58:00,
2013-04-29 08:00:00,40.3,21.2,0.00,SSE,164,2.7,2.7,46,0.00,,---,0.00,VWS V14.00,2013-04-29 14:00:00,
2013-04-29 08:02:00,40.5,20.8,0.00,SSE,159,0.0,4.0,45,0.00,,---,0.00,VWS V14.00,2013-04-29 14:02:00,
2013-04-29 08:03:00,40.6,21.0,0.00,SSE,153,0.0,0.0,45,0.00,,---,0.00,VWS V14.00,2013-04-29 14:03:00,
2013-04-29 08:05:00,41.0,20.8,0.00,NW,304,0.0,4.9,44,0.00,,---,0.00,VWS V14.00,2013-04-29 14:05:00,
2013-04-29 08:07:00,41.5,21.3,0.00,ESE,121,2.7,3.6,44,0.00,,---,0.00,VWS V14.00,2013-04-29 14:07:00,
2013-04-29 08:08:00,41.5,20.7,0.00,West,260,0.0,2.2,43,0.00,,---,0.00,VWS V14.00,2013-04-29 14:08:00,
2013-04-29 08:10:00,41.7,20.9,0.00,West,279,2.7,2.7,43,0.00,,---,0.00,VWS V14.00,2013-04-29 14:10:00,
2013-04-29 08:12:00,42.1,21.2,0.00,SE,127,0.0,4.9,43,0.00,,---,0.00,VWS V14.00,2013-04-29 14:12:00,
2013-04-29 08:13:00,42.3,21.4,0.00,SSW,207,0.0,3.1,43,0.00,,---,0.00,VWS V14.00,2013-04-29 14:13:00,
2013-04-29 08:15:00,42.4,21.5,0.00,WSW,241,2.2,3.1,43,0.00,,---,0.00,VWS V14.00,2013-04-29 14:15:00,
2013-04-29 08:17:00,42.8,21.3,0.00,NW,325,2.7,2.7,42,0.00,,---,0.00,VWS V14.00,2013-04-29 14:17:00,
2013-04-29 08:18:00,42.8,21.3,0.00,NW,317,3.6,3.6,42,0.00,,---,0.00,VWS V14.00,2013-04-29 14:18:00,
2013-04-29 08:19:00,43.0,21.5,0.00,NW,317,2.2,2.2,42,0.00,,---,0.00,VWS V14.00,2013-04-29 14:19:00,
2013-04-29 08:20:00,43.0,21.5,0.00,North,3,3.1,3.1,42,0.00,,---,0.00,VWS V14.00,2013-04-29 14:20:00,
2013-04-29 08:22:00,43.3,21.8,0.00,South,184,0.0,0.0,42,0.00,,---,0.00,VWS V14.00,2013-04-29 14:22:00,
2013-04-29 08:24:00,43.5,22.0,0.00,WSW,237,0.0,2.7,42,0.00,,---,0.00,VWS V14.00,2013-04-29 14:24:00,
2013-04-29 08:25:00,43.7,21.6,0.00,SE,143,0.0,3.6,41,0.00,,---,0.00,VWS V14.00,2013-04-29 14:25:00,
2013-04-29 08:27:00,44.1,21.9,0.00,ENE,77,3.6,7.2,41,0.00,,---,0.00,VWS V14.00,2013-04-29 14:27:00,
2013-04-29 08:28:00,44.1,21.9,0.00,ENE,77,4.0,7.2,41,0.00,,---,0.00,VWS V14.00,2013-04-29 14:28:00,
2013-04-29 08:29:00,44.2,22.0,0.00,NW,309,3.6,5.8,41,0.00,,---,0.00,VWS V14.00,2013-04-29 14:29:00,
2013-04-29 08:30:00,44.4,22.2,0.00,NW,320,0.0,0.0,41,0.00,,---,0.00,VWS V14.00,2013-04-29 14:30:00,
2013-04-29 08:33:00,44.8,22.0,0.00,SE,126,8.3,11.0,40,0.00,,---,0.00,VWS V14.00,2013-04-29 14:33:00,
2013-04-29 08:34:00,45.0,22.1,0.00,SW,226,3.6,6.3,40,0.00,,---,0.00,VWS V14.00,2013-04-29 14:34:00,
2013-04-29 08:35:00,45.1,21.7,0.00,South,184,2.7,4.9,39,0.00,,---,0.00,VWS V14.00,2013-04-29 14:35:00,
2013-04-29 08:38:00,45.5,22.0,0.00,South,190,0.0,0.0,39,0.00,,---,0.00,VWS V14.00,2013-04-29 14:38:00,
2013-04-29 08:39:00,45.7,22.2,0.00,SE,141,2.2,3.6,39,0.00,,---,0.00,VWS V14.00,2013-04-29 14:39:00,
2013-04-29 08:40:00,45.9,22.3,0.00,SE,141,0.0,0.0,39,0.00,,---,0.00,VWS V14.00,2013-04-29 14:40:00,
2013-04-29 08:43:00,46.0,22.5,0.00,SSW,198,0.0,4.0,39,0.00,,---,0.00,VWS V14.00,2013-04-29 14:43:00,
2013-04-29 08:44:00,46.2,22.6,0.00,SSW,207,0.0,0.0,39,0.00,,---,0.00,VWS V14.00,2013-04-29 14:44:00,
2013-04-29 08:45:00,46.4,22.2,0.00,SSE,157,0.0,2.7,38,0.00,,---,0.00,VWS V14.00,2013-04-29 14:45:00,
2013-04-29 08:48:00,46.6,22.4,0.00,SSW,193,0.0,0.0,38,0.00,,---,0.00,VWS V14.00,2013-04-29 14:48:00,
2013-04-29 08:49:00,46.8,22.5,0.00,SW,226,0.0,0.0,38,0.00,,---,0.00,VWS V14.00,2013-04-29 14:49:00,
2013-04-29 08:50:00,46.9,22.7,0.00,SE,137,0.0,0.0,38,0.00,,---,0.00,VWS V14.00,2013-04-29 14:50:00,
2013-04-29 08:53:00,47.3,23.0,0.00,WNW,294,4.9,4.9,38,0.00,,---,0.00,VWS V14.00,2013-04-29 14:53:00,
2013-04-29 08:54:00,47.5,23.2,0.00,NNW,328,2.2,2.2,38,0.00,,---,0.00,VWS V14.00,2013-04-29 14:54:00,
2013-04-29 08:56:00,47.7,23.3,0.00,WNW,299,0.0,5.8,38,0.00,,---,0.00,VWS V14.00,2013-04-29 14:56:00,
2013-04-29 08:58:00,48.0,23.6,0.00,WSW,244,2.2,2.2,38,0.00,,---,0.00,VWS V14.00,2013-04-29 14:58:00,
2013-04-29 08:59:00,48.0,23.6,0.00,ESE,122,8.1,8.1,38,0.00,,---,0.00,VWS V14.00,2013-04-29 14:59:00,
2013-04-29 09:01:00,48.2,23.2,0.00,NE,55,3.6,6.3,37,0.00,,---,0.00,VWS V14.00,2013-04-29 15:01:00,
2013-04-29 09:03:00,48.2,23.2,0.00,East,99,3.1,8.7,37,0.00,,---,0.00,VWS V14.00,2013-04-29 15:03:00,
2013-04-29 09:04:00,48.4,23.3,0.00,SE,131,5.8,8.7,37,0.00,,---,0.00,VWS V14.00,2013-04-29 15:04:00,
2013-04-29 09:06:00,48.6,23.5,0.00,South,189,3.1,5.4,37,0.00,,---,0.00,VWS V14.00,2013-04-29 15:06:00,
2013-04-29 09:08:00,48.7,23.6,0.00,South,180,3.6,5.4,37,0.00,,---,0.00,VWS V14.00,2013-04-29 15:08:00,
2013-04-29 09:09:00,48.7,23.6,0.00,NE,53,3.6,4.0,37,0.00,,---,0.00,VWS V14.00,2013-04-29 15:09:00,
2013-04-29 09:11:00,48.9,23.8,0.00,WNW,301,3.1,3.6,37,0.00,,---,0.00,VWS V14.00,2013-04-29 15:11:00,
2013-04-29 09:13:00,49.1,24.0,0.00,South,175,0.0,2.7,37,0.00,,---,0.00,VWS V14.00,2013-04-29 15:13:00,
2013-04-29 09:14:00,49.1,24.0,0.00,South,178,2.2,4.0,37,0.00,,---,0.00,VWS V14.00,2013-04-29 15:14:00,
2013-04-29 09:16:00,49.3,24.1,0.00,ESE,107,3.1,5.8,37,0.00,,---,0.00,VWS V14.00,2013-04-29 15:16:00,
2013-04-29 09:18:00,49.5,24.3,0.00,SW,219,2.2,2.2,37,0.00,,---,0.00,VWS V14.00,2013-04-29 15:18:00,
2013-04-29 09:19:00,49.5,24.3,0.00,SW,219,0.0,2.2,37,0.00,,---,0.00,VWS V14.00,2013-04-29 15:19:00,
2013-04-29 09:20:00,49.5,24.3,0.00,SW,222,0.0,0.0,37,0.00,,---,0.00,VWS V14.00,2013-04-29 15:20:00,
2013-04-29 09:21:00,49.6,24.5,0.00,ESE,113,0.0,5.4,37,0.00,,---,0.00,VWS V14.00,2013-04-29 15:21:00,
2013-04-29 09:23:00,49.8,24.6,0.00,East,101,0.0,0.0,37,0.00,,---,0.00,VWS V14.00,2013-04-29 15:23:00,
2013-04-29 09:24:00,49.8,24.6,0.00,SSW,208,2.7,2.7,37,0.00,,---,0.00,VWS V14.00,2013-04-29 15:24:00,
2013-04-29 09:25:00,49.8,24.6,0.00,East,86,3.1,3.6,37,0.00,,---,0.00,VWS V14.00,2013-04-29 15:25:00,
2013-04-29 09:27:00,50.0,23.4,0.00,SW,219,6.3,6.3,35,0.00,,---,0.00,VWS V14.00,2013-04-29 15:27:00,
2013-04-29 09:28:00,50.2,24.3,0.00,ESE,109,3.1,4.9,36,0.00,,---,0.00,VWS V14.00,2013-04-29 15:28:00,
2013-04-29 09:29:00,50.2,24.3,0.00,ESE,109,0.0,2.7,36,0.00,,---,0.00,VWS V14.00,2013-04-29 15:29:00,
2013-04-29 09:30:00,50.2,24.3,0.00,East,101,2.2,2.7,36,0.00,,---,0.00,VWS V14.00,2013-04-29 15:30:00,
2013-04-29 09:32:00,50.2,24.3,0.00,East,101,0.0,0.0,36,0.00,,---,0.00,VWS V14.00,2013-04-29 15:32:00,
2013-04-29 09:33:00,50.4,24.4,0.00,West,272,0.0,0.0,36,0.00,,---,0.00,VWS V14.00,2013-04-29 15:33:00,
2013-04-29 09:34:00,50.4,24.4,0.00,SSW,208,2.7,3.6,36,0.00,,---,0.00,VWS V14.00,2013-04-29 15:34:00,
2013-04-29 09:35:00,50.5,24.6,0.00,SE,143,3.1,3.6,36,0.00,,---,0.00,VWS V14.00,2013-04-29 15:35:00,
2013-04-29 09:37:00,50.7,24.1,0.00,SSE,156,2.7,2.7,35,0.00,,---,0.00,VWS V14.00,2013-04-29 15:37:00,
2013-04-29 09:39:00,50.9,24.9,0.00,ESE,120,0.0,0.0,36,0.00,,---,0.00,VWS V14.00,2013-04-29 15:39:00,
2013-04-29 09:40:00,50.9,24.9,0.00,ESE,117,2.2,2.2,36,0.00,,---,0.00,VWS V14.00,2013-04-29 15:40:00,
2013-04-29 09:42:00,51.1,25.1,0.00,ESE,120,4.0,4.9,36,0.00,,---,0.00,VWS V14.00,2013-04-29 15:42:00,
2013-04-29 09:44:00,51.3,24.6,0.00,WNW,284,0.0,2.2,35,0.00,,---,0.00,VWS V14.00,2013-04-29 15:44:00,
2013-04-29 09:45:00,51.3,24.6,0.00,NW,309,2.2,2.2,35,0.00,,---,0.00,VWS V14.00,2013-04-29 15:45:00,
2013-04-29 09:47:00,51.6,24.9,0.00,ESE,117,4.0,4.0,35,0.00,,---,0.00,VWS V14.00,2013-04-29 15:47:00,
2013-04-29 09:49:00,51.6,24.9,0.00,ESE,123,4.9,4.9,35,0.00,,---,0.00,VWS V14.00,2013-04-29 15:49:00,
2013-04-29 09:50:00,51.6,25.6,0.00,SE,142,4.0,4.0,36,0.00,,---,0.00,VWS V14.00,2013-04-29 15:50:00,
2013-04-29 09:51:00,51.8,25.0,0.00,SSE,160,4.0,4.9,35,0.00,,---,0.00,VWS V14.00,2013-04-29 15:51:00,
2013-04-29 09:52:00,51.8,25.0,0.00,SE,140,4.0,4.9,35,0.00,,---,0.00,VWS V14.00,2013-04-29 15:52:00,
2013-04-29 09:54:00,52.0,24.5,0.00,ESE,109,3.6,3.6,34,0.00,,---,0.00,VWS V14.00,2013-04-29 15:54:00,
2013-04-29 09:55:00,52.0,24.5,0.00,ESE,118,6.3,6.3,34,0.00,,---,0.00,VWS V14.00,2013-04-29 15:55:00,
2013-04-29 09:56:00,52.2,24.0,0.00,SE,131,3.1,3.1,33,0.00,,---,0.00,VWS V14.00,2013-04-29 15:56:00,
2013-04-29 09:58:00,52.3,24.1,0.00,SSW,203,0.0,4.0,33,0.00,,---,0.00,VWS V14.00,2013-04-29 15:58:00,
2013-04-29 09:59:00,52.3,24.1,0.00,ENE,70,2.7,3.6,33,0.00,,---,0.00,VWS V14.00,2013-04-29 15:59:00,
2013-04-29 10:00:00,52.3,24.1,0.00,East,96,3.6,4.5,33,0.00,,---,0.00,VWS V14.00,2013-04-29 16:00:00,
2013-04-29 10:01:00,52.5,24.3,0.00,ESE,106,5.8,6.3,33,0.00,,---,0.00,VWS V14.00,2013-04-29 16:01:00,
2013-04-29 10:03:00,52.7,24.4,0.00,ENE,77,4.9,5.4,33,0.00,,---,0.00,VWS V14.00,2013-04-29 16:03:00,
2013-04-29 10:04:00,52.9,23.9,0.00,SSE,168,4.0,8.7,32,0.00,,---,0.00,VWS V14.00,2013-04-29 16:04:00,
2013-04-29 10:05:00,52.9,23.9,0.00,SE,132,4.0,8.7,32,0.00,,---,0.00,VWS V14.00,2013-04-29 16:05:00,
2013-04-29 10:06:00,52.9,24.6,0.00,SE,138,5.8,5.8,33,0.00,,---,0.00,VWS V14.00,2013-04-29 16:06:00,
2013-04-29 10:08:00,53.1,24.7,0.00,East,92,3.6,3.6,33,0.00,,---,0.00,VWS V14.00,2013-04-29 16:08:00,
2013-04-29 10:09:00,53.1,24.7,0.00,ENE,59,3.6,3.6,33,0.00,,---,0.00,VWS V14.00,2013-04-29 16:09:00,
2013-04-29 10:10:00,53.1,24.7,0.00,East,87,5.8,5.8,33,0.00,,---,0.00,VWS V14.00,2013-04-29 16:10:00,
2013-04-29 10:11:00,53.2,24.9,0.00,ESE,118,4.0,6.3,33,0.00,,---,0.00,VWS V14.00,2013-04-29 16:11:00,
2013-04-29 10:13:00,53.4,25.1,0.00,ESE,111,2.7,2.7,33,0.00,,---,0.00,VWS V14.00,2013-04-29 16:13:00,
2013-04-29 10:15:00,53.6,25.2,0.00,ENE,77,2.7,4.0,33,0.00,,---,0.00,VWS V14.00,2013-04-29 16:15:00,
2013-04-29 10:17:00,53.8,25.4,0.00,ESE,113,4.9,5.8,33,0.00,,---,0.00,VWS V14.00,2013-04-29 16:17:00,
2013-04-29 10:18:00,53.8,24.6,0.00,ENE,72,9.2,13.2,32,0.00,,---,0.00,VWS V14.00,2013-04-29 16:18:00,
2013-04-29 10:20:00,53.8,24.6,0.00,ESE,117,4.9,6.3,32,0.00,,---,0.00,VWS V14.00,2013-04-29 16:20:00,
2013-04-29 10:22:00,54.0,24.0,0.00,South,183,5.4,5.8,31,0.00,,---,0.00,VWS V14.00,2013-04-29 16:22:00,
2013-04-29 10:23:00,54.0,24.0,0.00,SE,125,4.0,5.8,31,0.00,,---,0.00,VWS V14.00,2013-04-29 16:23:00,
2013-04-29 10:25:00,54.0,24.0,0.00,NE,37,5.4,5.4,31,0.00,,---,0.00,VWS V14.00,2013-04-29 16:25:00,
2013-04-29 10:26:00,54.0,24.0,0.00,East,89,8.1,8.1,31,0.00,,---,0.00,VWS V14.00,2013-04-29 16:26:00,
2013-04-29 10:27:00,54.0,23.2,0.00,SE,135,8.1,8.1,30,0.00,,---,0.00,VWS V14.00,2013-04-29 16:27:00,
2013-04-29 10:28:00,54.0,23.2,0.00,SE,138,4.0,5.8,30,0.00,,---,0.00,VWS V14.00,2013-04-29 16:28:00,
2013-04-29 10:30:00,54.1,23.4,0.00,ESE,115,6.3,8.1,30,0.00,,---,0.00,VWS V14.00,2013-04-29 16:30:00,
2013-04-29 10:31:00,54.1,23.4,0.00,ESE,110,3.6,8.1,30,0.00,,---,0.00,VWS V14.00,2013-04-29 16:31:00,
2013-04-29 10:33:00,54.1,23.4,0.00,East,93,4.0,6.3,30,0.00,,---,0.00,VWS V14.00,2013-04-29 16:33:00,
2013-04-29 10:35:00,54.3,23.6,0.00,ESE,109,4.9,7.6,30,0.00,,---,0.00,VWS V14.00,2013-04-29 16:35:00,
2013-04-29 10:36:00,54.3,23.6,0.00,NE,53,5.8,7.6,30,0.00,,---,0.00,VWS V14.00,2013-04-29 16:36:00,
2013-04-29 10:38:00,54.5,23.7,0.00,East,92,7.6,7.6,30,0.00,,---,0.00,VWS V14.00,2013-04-29 16:38:00,
2013-04-29 10:40:00,54.5,23.7,0.00,East,93,4.0,8.1,30,0.00,,---,0.00,VWS V14.00,2013-04-29 16:40:00,
2013-04-29 10:41:00,54.5,23.7,0.00,East,93,5.4,8.1,30,0.00,,---,0.00,VWS V14.00,2013-04-29 16:41:00,
2013-04-29 10:43:00,54.5,23.7,0.00,ESE,112,5.4,5.4,30,0.00,,---,0.00,VWS V14.00,2013-04-29 16:43:00,
2013-04-29 10:44:00,54.5,23.7,0.00,ESE,104,4.0,6.3,30,0.00,,---,0.00,VWS V14.00,2013-04-29 16:44:00,
2013-04-29 10:45:00,54.5,23.7,0.00,East,87,6.3,6.3,30,0.00,,---,0.00,VWS V14.00,2013-04-29 16:45:00,
2013-04-29 10:46:00,54.5,23.7,0.00,East,84,4.0,8.1,30,0.00,,---,0.00,VWS V14.00,2013-04-29 16:46:00,
2013-04-29 10:48:00,54.5,23.7,0.00,East,101,4.9,11.4,30,0.00,,---,0.00,VWS V14.00,2013-04-29 16:48:00,
2013-04-29 10:49:00,54.5,23.7,0.00,ENE,72,4.9,11.4,30,0.00,,---,0.00,VWS V14.00,2013-04-29 16:49:00,
2013-04-29 10:50:00,54.7,23.9,0.00,East,100,6.7,6.7,30,0.00,,---,0.00,VWS V14.00,2013-04-29 16:50:00,
2013-04-29 10:51:00,54.7,23.9,0.00,SE,132,4.9,4.9,30,0.00,,---,0.00,VWS V14.00,2013-04-29 16:51:00,
2013-04-29 10:53:00,54.7,23.9,0.00,SE,137,7.6,8.1,30,0.00,,---,0.00,VWS V14.00,2013-04-29 16:53:00,
2013-04-29 10:54:00,54.7,23.9,0.00,ESE,111,4.9,8.1,30,0.00,,---,0.00,VWS V14.00,2013-04-29 16:54:00,
2013-04-29 10:55:00,54.7,23.9,0.00,East,82,5.4,10.5,30,0.00,,---,0.00,VWS V14.00,2013-04-29 16:55:00,
2013-04-29 10:56:00,54.7,23.9,0.00,East,93,4.0,10.5,30,0.00,,---,0.00,VWS V14.00,2013-04-29 16:56:00,
2013-04-29 10:58:00,54.7,23.1,0.00,ESE,112,4.0,5.4,29,0.00,,---,0.00,VWS V14.00,2013-04-29 16:58:00,
2013-04-29 10:59:00,54.7,23.1,0.00,ESE,114,4.9,4.9,29,0.00,,---,0.00,VWS V14.00,2013-04-29 16:59:00,
2013-04-29 11:00:00,54.7,23.9,0.00,NE,56,3.1,3.1,30,0.00,,---,0.00,VWS V14.00,2013-04-29 17:00:00,
2013-04-29 11:01:00,54.7,23.9,0.00,ENE,61,4.9,4.9,30,0.00,,---,0.00,VWS V14.00,2013-04-29 17:01:00,
2013-04-29 11:02:00,54.7,23.9,0.00,NE,42,2.7,4.9,30,0.00,,---,0.00,VWS V14.00,2013-04-29 17:02:00,
2013-04-29 11:03:00,54.7,23.9,0.00,ESE,113,3.6,3.6,30,0.00,,---,0.00,VWS V14.00,2013-04-29 17:03:00,
2013-04-29 11:04:00,54.7,23.9,0.00,SE,137,5.4,5.4,30,0.00,,---,0.00,VWS V14.00,2013-04-29 17:04:00,
2013-04-29 11:05:00,54.7,23.9,0.00,ESE,119,4.0,7.6,30,0.00,,---,0.00,VWS V14.00,2013-04-29 17:05:00,
2013-04-29 11:06:00,54.7,23.9,0.00,ESE,112,5.4,5.4,30,0.00,,---,0.00,VWS V14.00,2013-04-29 17:06:00,
2013-04-29 11:07:00,54.7,23.9,0.00,ESE,118,9.6,9.6,30,0.00,,---,0.00,VWS V14.00,2013-04-29 17:07:00,
2013-04-29 11:08:00,54.7,23.9,0.00,SE,127,0.0,4.9,30,0.00,,---,0.00,VWS V14.00,2013-04-29 17:08:00,
2013-04-29 11:09:00,54.7,23.9,0.00,ENE,76,5.4,5.4,30,0.00,,---,0.00,VWS V14.00,2013-04-29 17:09:00,
2013-04-29 11:11:00,54.9,23.2,0.00,ESE,117,5.8,10.5,29,0.00,,---,0.00,VWS V14.00,2013-04-29 17:11:00,
2013-04-29 11:12:00,54.9,23.2,0.00,SSW,205,2.7,5.8,29,0.00,,---,0.00,VWS V14.00,2013-04-29 17:12:00,
2013-04-29 11:14:00,54.9,23.2,0.00,East,95,4.9,4.9,29,0.00,,---,0.00,VWS V14.00,2013-04-29 17:14:00,
2013-04-29 11:16:00,55.0,23.4,0.00,ESE,112,0.0,3.1,29,0.00,,---,0.00,VWS V14.00,2013-04-29 17:16:00,
2013-04-29 11:17:00,55.0,23.4,0.00,East,84,2.7,4.0,29,0.00,,---,0.00,VWS V14.00,2013-04-29 17:17:00,
2013-04-29 11:19:00,55.0,23.4,0.00,SE,129,4.9,5.8,29,0.00,,---,0.00,VWS V14.00,2013-04-29 17:19:00,
2013-04-29 11:22:00,55.0,23.4,0.00,ENE,59,2.7,7.6,29,0.00,,---,0.00,VWS V14.00,2013-04-29 17:22:00,
2013-04-29 11:24:00,55.2,23.5,0.00,SE,139,5.8,8.3,29,0.00,,---,0.00,VWS V14.00,2013-04-29 17:24:00,
2013-04-29 11:27:00,55.2,23.5,0.00,SE,135,5.4,5.4,29,0.00,,---,0.00,VWS V14.00,2013-04-29 17:27:00,
2013-04-29 11:29:00,55.2,23.5,0.00,East,85,3.1,4.0,29,0.00,,---,0.00,VWS V14.00,2013-04-29 17:29:00,
2013-04-29 11:32:00,55.4,23.7,0.00,SE,127,6.3,6.3,29,0.00,,---,0.00,VWS V14.00,2013-04-29 17:32:00,
2013-04-29 11:33:00,55.4,23.7,0.00,East,92,4.0,8.7,29,0.00,,---,0.00,VWS V14.00,2013-04-29 17:33:00,
2013-04-29 11:34:00,55.4,23.7,0.00,ENE,67,5.4,5.8,29,0.00,,---,0.00,VWS V14.00,2013-04-29 17:34:00,
2013-04-29 11:35:00,55.4,22.9,0.00,East,85,6.3,8.1,28,0.00,,---,0.00,VWS V14.00,2013-04-29 17:35:00,
2013-04-29 11:37:00,55.4,22.9,0.00,East,91,3.1,3.6,28,0.00,,---,0.00,VWS V14.00,2013-04-29 17:37:00,
2013-04-29 11:38:00,55.4,22.9,0.00,East,90,7.6,7.6,28,0.00,,---,0.00,VWS V14.00,2013-04-29 17:38:00,
2013-04-29 11:39:00,55.4,22.9,0.00,NE,44,4.9,7.6,28,0.00,,---,0.00,VWS V14.00,2013-04-29 17:39:00,
2013-04-29 11:40:00,55.4,22.9,0.00,SE,131,5.4,5.8,28,0.00,,---,0.00,VWS V14.00,2013-04-29 17:40:00,
2013-04-29 11:42:00,55.4,22.9,0.00,ESE,122,3.1,5.4,28,0.00,,---,0.00,VWS V14.00,2013-04-29 17:42:00,
2013-04-29 11:43:00,55.6,23.0,0.00,SE,128,4.9,4.9,28,0.00,,---,0.00,VWS V14.00,2013-04-29 17:43:00,
2013-04-29 11:44:00,55.6,23.0,0.00,East,98,4.0,4.9,28,0.00,,---,0.00,VWS V14.00,2013-04-29 17:44:00,
2013-04-29 11:45:00,55.6,23.0,0.00,North,10,8.7,8.7,28,0.00,,---,0.00,VWS V14.00,2013-04-29 17:45:00,
2013-04-29 11:47:00,55.6,23.0,0.00,ENE,76,3.1,5.8,28,0.00,,---,0.00,VWS V14.00,2013-04-29 17:47:00,
2013-04-29 11:48:00,55.6,23.0,0.00,ESE,102,4.9,5.8,28,0.00,,---,0.00,VWS V14.00,2013-04-29 17:48:00,
2013-04-29 11:49:00,55.6,23.0,0.00,ESE,116,7.6,7.6,28,0.00,,---,0.00,VWS V14.00,2013-04-29 17:49:00,
2013-04-29 11:50:00,55.8,23.2,0.00,ESE,104,4.9,4.9,28,0.00,,---,0.00,VWS V14.00,2013-04-29 17:50:00,
2013-04-29 11:52:00,55.8,23.2,0.00,ESE,115,6.3,6.3,28,0.00,,---,0.00,VWS V14.00,2013-04-29 17:52:00,
2013-04-29 11:53:00,55.8,23.2,0.00,SE,142,3.1,5.4,28,0.00,,---,0.00,VWS V14.00,2013-04-29 17:53:00,
2013-04-29 11:54:00,55.8,23.2,0.00,ESE,120,5.4,5.4,28,0.00,,---,0.00,VWS V14.00,2013-04-29 17:54:00,
2013-04-29 11:55:00,55.8,23.2,0.00,SE,129,8.7,8.7,28,0.00,,---,0.00,VWS V14.00,2013-04-29 17:55:00,
2013-04-29 11:57:00,55.8,23.2,0.00,ESE,122,4.0,5.4,28,0.00,,---,0.00,VWS V14.00,2013-04-29 17:57:00,
2013-04-29 11:58:00,55.8,23.2,0.00,East,101,9.6,9.6,28,0.00,,---,0.00,VWS V14.00,2013-04-29 17:58:00,
2013-04-29 11:59:00,55.8,23.2,0.00,East,85,8.3,8.3,28,0.00,,---,0.00,VWS V14.00,2013-04-29 17:59:00,
2013-04-29 12:00:00,55.8,23.2,0.00,ESE,121,2.7,5.8,28,0.00,,---,0.00,VWS V14.00,2013-04-29 18:00:00,
2013-04-29 12:03:00,55.8,23.2,0.00,East,80,0.0,2.7,28,0.00,,---,0.00,VWS V14.00,2013-04-29 18:03:00,
2013-04-29 12:04:00,55.8,23.2,0.00,SSE,150,3.6,5.4,28,0.00,,---,0.00,VWS V14.00,2013-04-29 18:04:00,
2013-04-29 12:06:00,55.8,22.3,0.00,SSW,192,0.0,4.9,27,0.00,,---,0.00,VWS V14.00,2013-04-29 18:06:00,
2013-04-29 12:08:00,55.9,23.3,0.00,ESE,102,5.8,5.8,28,0.00,,---,0.00,VWS V14.00,2013-04-29 18:08:00,
2013-04-29 12:10:00,55.9,23.3,0.00,SSE,149,5.8,5.8,28,0.00,,---,0.00,VWS V14.00,2013-04-29 18:10:00,
2013-04-29 12:11:00,55.9,23.3,0.00,ESE,106,3.1,3.6,28,0.00,,---,0.00,VWS V14.00,2013-04-29 18:11:00,
2013-04-29 12:13:00,55.9,23.3,0.00,SE,137,4.9,5.8,28,0.00,,---,0.00,VWS V14.00,2013-04-29 18:13:00,
2013-04-29 12:15:00,56.1,23.5,0.00,ESE,110,2.7,5.4,28,0.00,,---,0.00,VWS V14.00,2013-04-29 18:15:00,
2013-04-29 12:16:00,56.1,23.5,0.00,SE,141,5.8,5.8,28,0.00,,---,0.00,VWS V14.00,2013-04-29 18:16:00,
2013-04-29 12:18:00,56.1,23.5,0.00,ESE,113,8.3,8.3,28,0.00,,---,0.00,VWS V14.00,2013-04-29 18:18:00,
2013-04-29 12:20:00,56.3,23.6,0.00,East,99,3.1,5.4,28,0.00,,---,0.00,VWS V14.00,2013-04-29 18:20:00,
2013-04-29 12:21:00,56.3,23.6,0.00,ENE,77,7.6,7.6,28,0.00,,---,0.00,VWS V14.00,2013-04-29 18:21:00,
2013-04-29 12:23:00,56.3,23.6,0.00,East,86,4.0,4.0,28,0.00,,---,0.00,VWS V14.00,2013-04-29 18:23:00,
2013-04-29 12:25:00,56.5,23.8,0.00,East,85,3.6,4.0,28,0.00,,---,0.00,VWS V14.00,2013-04-29 18:25:00,
2013-04-29 12:26:00,56.5,23.8,0.00,ESE,120,6.3,7.6,28,0.00,,---,0.00,VWS V14.00,2013-04-29 18:26:00,
2013-04-29 12:28:00,56.7,24.0,0.00,SSE,156,8.7,11.0,28,0.00,,---,0.00,VWS V14.00,2013-04-29 18:28:00,
2013-04-29 12:29:00,56.7,24.0,0.00,South,182,8.1,11.0,28,0.00,,---,0.00,VWS V14.00,2013-04-29 18:29:00,
2013-04-29 12:30:00,56.7,24.0,0.00,ESE,103,7.2,7.2,28,0.00,,---,0.00,VWS V14.00,2013-04-29 18:30:00,
2013-04-29 12:31:00,56.7,24.0,0.00,SE,142,4.0,8.7,28,0.00,,---,0.00,VWS V14.00,2013-04-29 18:31:00,
2013-04-29 12:33:00,56.8,24.1,0.00,East,79,5.4,8.1,28,0.00,,---,0.00,VWS V14.00,2013-04-29 18:33:00,
2013-04-29 12:34:00,56.8,24.1,0.00,ENE,76,5.8,8.1,28,0.00,,---,0.00,VWS V14.00,2013-04-29 18:34:00,
2013-04-29 12:35:00,56.8,24.1,0.00,ESE,122,6.3,6.3,28,0.00,,---,0.00,VWS V14.00,2013-04-29 18:35:00,
2013-04-29 12:36:00,56.8,24.1,0.00,SSE,147,5.8,5.8,28,0.00,,---,0.00,VWS V14.00,2013-04-29 18:36:00,
2013-04-29 12:39:00,57.0,24.3,0.00,ENE,64,4.9,8.3,28,0.00,,---,0.00,VWS V14.00,2013-04-29 18:39:00,
2013-04-29 12:40:00,57.0,24.3,0.00,ESE,108,8.1,8.1,28,0.00,,---,0.00,VWS V14.00,2013-04-29 18:40:00,
2013-04-29 12:41:00,57.2,24.4,0.00,SE,131,7.6,8.7,28,0.00,,---,0.00,VWS V14.00,2013-04-29 18:41:00,
2013-04-29 12:44:00,57.2,23.5,0.00,ESE,120,4.0,8.7,27,0.00,,---,0.00,VWS V14.00,2013-04-29 18:44:00,
2013-04-29 12:45:00,57.4,23.7,0.00,East,97,3.6,8.7,27,0.00,,---,0.00,VWS V14.00,2013-04-29 18:45:00,
2013-04-29 12:46:00,57.4,23.7,0.00,SSE,147,8.3,8.3,27,0.00,,---,0.00,VWS V14.00,2013-04-29 18:46:00,
2013-04-29 12:49:00,57.4,23.7,0.00,South,181,5.8,5.8,27,0.00,,---,0.00,VWS V14.00,2013-04-29 18:49:00,
2013-04-29 12:51:00,57.4,23.7,0.00,ESE,113,6.3,6.3,27,0.00,,---,0.00,VWS V14.00,2013-04-29 18:51:00,
2013-04-29 12:54:00,57.6,23.9,0.00,ESE,108,8.3,8.3,27,0.00,,---,0.00,VWS V14.00,2013-04-29 18:54:00,
2013-04-29 12:56:00,57.7,24.0,0.00,NE,43,3.6,8.1,27,0.00,,---,0.00,VWS V14.00,2013-04-29 18:56:00,
2013-04-29 12:57:00,57.7,24.0,0.00,East,81,8.3,8.3,27,0.00,,---,0.00,VWS V14.00,2013-04-29 18:57:00,
2013-04-29 12:59:00,57.9,24.2,0.00,ESE,110,10.5,10.5,27,0.00,,---,0.00,VWS V14.00,2013-04-29 18:59:00,
2013-04-29 13:01:00,57.9,24.2,0.00,SE,140,3.6,8.1,27,0.00,,---,0.00,VWS V14.00,2013-04-29 19:01:00,
2013-04-29 13:02:00,57.9,24.2,0.00,ENE,64,5.4,5.4,27,0.00,,---,0.00,VWS V14.00,2013-04-29 19:02:00,
2013-04-29 13:04:00,58.1,24.3,0.00,ESE,104,4.0,6.3,27,0.00,,---,0.00,VWS V14.00,2013-04-29 19:04:00,
2013-04-29 13:06:00,58.1,24.3,0.00,SE,143,7.6,8.3,27,0.00,,---,0.00,VWS V14.00,2013-04-29 19:06:00,
2013-04-29 13:07:00,58.1,24.3,0.00,South,178,7.6,7.6,27,0.00,,---,0.00,VWS V14.00,2013-04-29 19:07:00,
2013-04-29 13:09:00,58.3,24.5,0.00,East,100,4.9,8.1,27,0.00,,---,0.00,VWS V14.00,2013-04-29 19:09:00,
2013-04-29 13:10:00,58.3,24.5,0.00,West,276,4.0,8.1,27,0.00,,---,0.00,VWS V14.00,2013-04-29 19:10:00,
2013-04-29 13:11:00,58.3,24.5,0.00,East,99,5.4,6.3,27,0.00,,---,0.00,VWS V14.00,2013-04-29 19:11:00,
2013-04-29 13:12:00,58.5,24.6,0.00,East,90,3.6,5.4,27,0.00,,---,0.00,VWS V14.00,2013-04-29 19:12:00,
2013-04-29 13:14:00,58.5,24.6,0.00,East,96,3.6,5.8,27,0.00,,---,0.00,VWS V14.00,2013-04-29 19:14:00,
2013-04-29 13:15:00,58.5,24.6,0.00,East,81,6.3,6.3,27,0.00,,---,0.00,VWS V14.00,2013-04-29 19:15:00,
2013-04-29 13:16:00,58.5,24.6,0.00,East,95,4.0,4.0,27,0.00,,---,0.00,VWS V14.00,2013-04-29 19:16:00,
2013-04-29 13:17:00,58.5,24.6,0.00,ESE,123,7.6,8.1,27,0.00,,---,0.00,VWS V14.00,2013-04-29 19:17:00,
2013-04-29 13:19:00,58.5,24.6,0.00,East,95,8.7,8.7,27,0.00,,---,0.00,VWS V14.00,2013-04-29 19:19:00,
2013-04-29 13:20:00,58.5,24.6,0.00,East,100,5.8,8.7,27,0.00,,---,0.00,VWS V14.00,2013-04-29 19:20:00,
2013-04-29 13:21:00,58.5,24.6,0.00,ESE,104,5.4,5.4,27,0.00,,---,0.00,VWS V14.00,2013-04-29 19:21:00,
2013-04-29 13:22:00,58.5,24.6,0.00,East,101,8.1,8.3,27,0.00,,---,0.00,VWS V14.00,2013-04-29 19:22:00,
2013-04-29 13:24:00,58.5,23.7,0.00,NNE,19,8.1,8.7,26,0.00,,---,0.00,VWS V14.00,2013-04-29 19:24:00,
2013-04-29 13:25:00,58.5,24.6,0.00,ESE,107,9.2,9.2,27,0.00,,---,0.00,VWS V14.00,2013-04-29 19:25:00,
2013-04-29 13:26:00,58.5,23.7,0.00,ENE,71,5.8,10.1,26,0.00,,---,0.00,VWS V14.00,2013-04-29 19:26:00,
2013-04-29 13:27:00,58.5,23.7,0.00,SE,135,8.7,8.7,26,0.00,,---,0.00,VWS V14.00,2013-04-29 19:27:00,
2013-04-29 13:30:00,58.5,23.7,0.00,ESE,103,4.0,8.7,26,0.00,,---,0.00,VWS V14.00,2013-04-29 19:30:00,
2013-04-29 13:31:00,58.5,23.7,0.00,SE,126,0.0,6.7,26,0.00,,---,0.00,VWS V14.00,2013-04-29 19:31:00,
2013-04-29 13:32:00,58.5,23.7,0.00,ENE,65,3.6,10.5,26,0.00,,---,0.00,VWS V14.00,2013-04-29 19:32:00,
2013-04-29 13:35:00,58.5,23.7,0.00,ENE,71,5.8,6.3,26,0.00,,---,0.00,VWS V14.00,2013-04-29 19:35:00,
2013-04-29 13:36:00,58.5,23.7,0.00,ENE,64,4.9,6.3,26,0.00,,---,0.00,VWS V14.00,2013-04-29 19:36:00,
2013-04-29 13:37:00,58.5,23.7,0.00,ESE,110,2.7,4.9,26,0.00,,---,0.00,VWS V14.00,2013-04-29 19:37:00,
2013-04-29 13:40:00,58.6,23.9,0.00,ESE,120,6.3,6.3,26,0.00,,---,0.00,VWS V14.00,2013-04-29 19:40:00,
2013-04-29 13:41:00,58.6,24.8,0.00,ENE,65,7.6,7.6,27,0.00,,---,0.00,VWS V14.00,2013-04-29 19:41:00,
2013-04-29 13:42:00,58.6,24.8,0.00,ESE,109,5.4,7.6,27,0.00,,---,0.00,VWS V14.00,2013-04-29 19:42:00,
2013-04-29 13:43:00,58.8,24.0,0.00,South,169,5.8,5.8,26,0.00,,---,0.00,VWS V14.00,2013-04-29 19:43:00,
2013-04-29 13:45:00,58.8,24.0,0.00,SE,140,5.8,6.3,26,0.00,,---,0.00,VWS V14.00,2013-04-29 19:45:00,
2013-04-29 13:46:00,59.0,24.2,0.00,SSE,155,6.7,6.7,26,0.00,,---,0.00,VWS V14.00,2013-04-29 19:46:00,
2013-04-29 13:47:00,59.0,24.2,0.00,ESE,117,5.8,7.6,26,0.00,,---,0.00,VWS V14.00,2013-04-29 19:47:00,
2013-04-29 13:48:00,59.0,24.2,0.00,ESE,104,5.4,5.4,26,0.00,,---,0.00,VWS V14.00,2013-04-29 19:48:00,
2013-04-29 13:50:00,59.2,24.3,0.00,SE,130,6.3,10.5,26,0.00,,---,0.00,VWS V14.00,2013-04-29 19:50:00,
2013-04-29 13:51:00,59.2,24.3,0.00,East,98,6.3,6.3,26,0.00,,---,0.00,VWS V14.00,2013-04-29 19:51:00,
2013-04-29 13:52:00,59.2,24.3,0.00,SE,144,4.0,4.0,26,0.00,,---,0.00,VWS V14.00,2013-04-29 19:52:00,
2013-04-29 13:53:00,59.2,24.3,0.00,SE,136,8.1,14.5,26,0.00,,---,0.00,VWS V14.00,2013-04-29 19:53:00,
2013-04-29 13:55:00,59.4,23.6,0.00,East,99,4.0,11.4,25,0.00,,---,0.00,VWS V14.00,2013-04-29 19:55:00,
2013-04-29 13:56:00,59.4,23.6,0.00,SE,143,5.4,7.6,25,0.00,,---,0.00,VWS V14.00,2013-04-29 19:56:00,
2013-04-29 13:57:00,59.4,23.6,0.00,South,173,4.0,4.0,25,0.00,,---,0.00,VWS V14.00,2013-04-29 19:57:00,
2013-04-29 13:58:00,59.4,23.6,0.00,SSE,150,12.3,12.3,25,0.00,,---,0.00,VWS V14.00,2013-04-29 19:58:00,
2013-04-29 14:01:00,59.4,24.5,0.00,SE,143,5.4,7.6,26,0.00,,---,0.00,VWS V14.00,2013-04-29 20:01:00,
2013-04-29 14:02:00,59.4,24.5,0.00,SE,146,8.7,8.7,26,0.00,,---,0.00,VWS V14.00,2013-04-29 20:02:00,
2013-04-29 14:03:00,59.4,24.5,0.00,East,90,8.1,8.1,26,0.00,,---,0.00,VWS V14.00,2013-04-29 20:03:00,
2013-04-29 14:06:00,59.5,24.6,0.00,East,101,11.0,11.0,26,0.00,,---,0.00,VWS V14.00,2013-04-29 20:06:00,
2013-04-29 14:07:00,59.5,24.6,0.00,SE,130,3.6,13.2,26,0.00,,---,0.00,VWS V14.00,2013-04-29 20:07:00,
2013-04-29 14:08:00,59.5,24.6,0.00,SSE,151,5.4,5.4,26,0.00,,---,0.00,VWS V14.00,2013-04-29 20:08:00,
2013-04-29 14:11:00,59.7,24.8,0.00,NE,50,8.1,10.1,26,0.00,,---,0.00,VWS V14.00,2013-04-29 20:11:00,
2013-04-29 14:12:00,59.7,23.9,0.00,SE,140,13.6,14.1,25,0.00,,---,0.00,VWS V14.00,2013-04-29 20:12:00,
2013-04-29 14:14:00,59.7,23.9,0.00,ESE,123,8.1,8.7,25,0.00,,---,0.00,VWS V14.00,2013-04-29 20:14:00,
2013-04-29 14:16:00,59.9,24.0,0.00,SE,129,6.3,10.1,25,0.00,,---,0.00,VWS V14.00,2013-04-29 20:16:00,
2013-04-29 14:17:00,59.9,25.0,0.00,North,2,11.0,11.0,26,0.00,,---,0.00,VWS V14.00,2013-04-29 20:17:00,
2013-04-29 14:19:00,60.1,24.2,0.00,ENE,65,8.1,15.4,25,0.00,,---,0.00,VWS V14.00,2013-04-29 20:19:00,
2013-04-29 14:21:00,60.1,24.2,0.00,SE,137,5.4,10.1,25,0.00,,---,0.00,VWS V14.00,2013-04-29 20:21:00,
2013-04-29 14:22:00,60.1,24.2,0.00,SSE,153,2.7,10.1,25,0.00,,---,0.00,VWS V14.00,2013-04-29 20:22:00,
2013-04-29 14:23:00,60.1,24.2,0.00,NE,47,8.3,10.5,25,0.00,,---,0.00,VWS V14.00,2013-04-29 20:23:00,
2013-04-29 14:24:00,60.1,24.2,0.00,ESE,102,10.1,10.1,25,0.00,,---,0.00,VWS V14.00,2013-04-29 20:24:00,
2013-04-29 14:26:00,60.1,24.2,0.00,ESE,103,5.4,11.0,25,0.00,,---,0.00,VWS V14.00,2013-04-29 20:26:00,
2013-04-29 14:27:00,60.1,24.2,0.00,ESE,114,11.0,15.4,25,0.00,,---,0.00,VWS V14.00,2013-04-29 20:27:00,
2013-04-29 14:29:00,60.1,24.2,0.00,SE,134,9.6,13.2,25,0.00,,---,0.00,VWS V14.00,2013-04-29 20:29:00,
2013-04-29 14:32:00,60.1,24.2,0.00,East,91,5.8,8.3,25,0.00,,---,0.00,VWS V14.00,2013-04-29 20:32:00,
2013-04-29 14:33:00,60.3,24.3,0.00,SSE,150,6.3,8.7,25,0.00,,---,0.00,VWS V14.00,2013-04-29 20:33:00,
2013-04-29 14:34:00,60.3,24.3,0.00,ESE,120,9.2,9.2,25,0.00,,---,0.00,VWS V14.00,2013-04-29 20:34:00,
2013-04-29 14:37:00,60.4,24.5,0.00,ESE,118,5.4,7.6,25,0.00,,---,0.00,VWS V14.00,2013-04-29 20:37:00,
2013-04-29 14:38:00,60.6,24.6,0.00,SE,130,6.7,8.7,25,0.00,,---,0.00,VWS V14.00,2013-04-29 20:38:00,
2013-04-29 14:39:00,60.6,24.6,0.00,East,100,10.5,10.5,25,0.00,,---,0.00,VWS V14.00,2013-04-29 20:39:00,
2013-04-29 14:42:00,60.8,24.8,0.00,ESE,110,5.8,8.7,25,0.00,,---,0.00,VWS V14.00,2013-04-29 20:42:00,
2013-04-29 14:43:00,60.8,24.8,0.00,ESE,114,10.1,10.1,25,0.00,,---,0.00,VWS V14.00,2013-04-29 20:43:00,
2013-04-29 14:44:00,61.0,24.9,0.00,SE,141,5.4,5.8,25,0.00,,---,0.00,VWS V14.00,2013-04-29 20:44:00,
2013-04-29 14:47:00,61.2,25.1,0.00,ESE,114,10.1,14.1,25,0.00,,---,0.00,VWS V14.00,2013-04-29 20:47:00,
2013-04-29 14:48:00,61.2,25.1,0.00,East,101,8.3,11.0,25,0.00,,---,0.00,VWS V14.00,2013-04-29 20:48:00,
2013-04-29 14:49:00,61.3,25.2,0.00,South,177,4.5,6.3,25,0.00,,---,0.00,VWS V14.00,2013-04-29 20:49:00,
2013-04-29 14:52:00,61.5,25.4,0.00,SE,139,8.3,8.3,25,0.00,,---,0.00,VWS V14.00,2013-04-29 20:52:00,
2013-04-29 14:53:00,61.7,25.5,0.00,East,85,6.3,6.3,25,0.00,,---,0.00,VWS V14.00,2013-04-29 20:53:00,
2013-04-29 14:54:00,61.9,25.7,0.00,SE,131,8.7,13.2,25,0.00,,---,0.00,VWS V14.00,2013-04-29 20:54:00,
2013-04-29 14:57:00,62.1,25.9,0.00,SE,125,8.3,8.3,25,0.00,,---,0.00,VWS V14.00,2013-04-29 20:57:00,
2013-04-29 14:58:00,62.1,25.9,0.00,East,98,12.8,12.8,25,0.00,,---,0.00,VWS V14.00,2013-04-29 20:58:00,
2013-04-29 14:59:00,62.1,25.9,0.00,East,82,5.8,8.3,25,0.00,,---,0.00,VWS V14.00,2013-04-29 20:59:00,
2013-04-29 15:00:00,62.2,26.0,0.00,ESE,107,6.3,6.3,25,0.00,,---,0.00,VWS V14.00,2013-04-29 21:00:00,
2013-04-29 15:02:00,62.2,26.0,0.00,East,96,11.0,11.0,25,0.00,,---,0.00,VWS V14.00,2013-04-29 21:02:00,
2013-04-29 15:03:00,62.2,26.0,0.00,ESE,106,9.6,12.8,25,0.00,,---,0.00,VWS V14.00,2013-04-29 21:03:00,
2013-04-29 15:04:00,62.4,26.2,0.00,East,97,8.7,11.0,25,0.00,,---,0.00,VWS V14.00,2013-04-29 21:04:00,
2013-04-29 15:05:00,62.4,26.2,0.00,ENE,78,10.1,10.1,25,0.00,,---,0.00,VWS V14.00,2013-04-29 21:05:00,
2013-04-29 15:07:00,62.4,26.2,0.00,SE,144,9.2,9.2,25,0.00,,---,0.00,VWS V14.00,2013-04-29 21:07:00,
2013-04-29 15:08:00,62.4,26.2,0.00,East,90,11.0,11.0,25,0.00,,---,0.00,VWS V14.00,2013-04-29 21:08:00,
2013-04-29 15:09:00,62.4,26.2,0.00,SSE,148,4.0,8.3,25,0.00,,---,0.00,VWS V14.00,2013-04-29 21:09:00,
2013-04-29 15:10:00,62.4,26.2,0.00,ESE,119,5.8,8.3,25,0.00,,---,0.00,VWS V14.00,2013-04-29 21:10:00,
2013-04-29 15:12:00,62.4,26.2,0.00,ENE,69,5.8,8.1,25,0.00,,---,0.00,VWS V14.00,2013-04-29 21:12:00,
2013-04-29 15:13:00,62.4,26.2,0.00,SE,133,7.6,8.1,25,0.00,,---,0.00,VWS V14.00,2013-04-29 21:13:00,
2013-04-29 15:15:00,62.6,25.3,0.00,NE,52,7.6,8.7,24,0.00,,---,0.00,VWS V14.00,2013-04-29 21:15:00,
2013-04-29 15:17:00,62.8,25.5,0.00,East,100,8.7,8.7,24,0.00,,---,0.00,VWS V14.00,2013-04-29 21:17:00,
2013-04-29 15:18:00,62.8,25.5,0.00,ESE,106,8.3,8.7,24,0.00,,---,0.00,VWS V14.00,2013-04-29 21:18:00,
2013-04-29 15:20:00,62.8,25.5,0.00,ESE,107,5.4,8.1,24,0.00,,---,0.00,VWS V14.00,2013-04-29 21:20:00,
2013-04-29 15:22:00,63.0,25.6,0.00,SE,146,5.4,5.4,24,0.00,,---,0.00,VWS V14.00,2013-04-29 21:22:00,
2013-04-29 15:23:00,63.0,25.6,0.00,SE,140,4.5,5.4,24,0.00,,---,0.00,VWS V14.00,2013-04-29 21:23:00,
2013-04-29 15:25:00,63.1,25.8,0.00,ESE,118,9.2,9.2,24,0.00,,---,0.00,VWS V14.00,2013-04-29 21:25:00,
2013-04-29 15:27:00,63.3,25.9,0.00,SE,136,6.3,6.3,24,0.00,,---,0.00,VWS V14.00,2013-04-29 21:27:00,
2013-04-29 15:28:00,63.3,25.9,0.00,East,92,11.9,11.9,24,0.00,,---,0.00,VWS V14.00,2013-04-29 21:28:00,
2013-04-29 15:30:00,63.3,25.9,0.00,SSE,157,5.4,5.4,24,0.00,,---,0.00,VWS V14.00,2013-04-29 21:30:00,
2013-04-29 15:33:00,63.5,26.1,0.00,East,85,8.7,8.7,24,0.00,,---,0.00,VWS V14.00,2013-04-29 21:33:00,
2013-04-29 15:35:00,63.7,26.2,0.00,NE,51,3.1,4.9,24,0.00,,---,0.00,VWS V14.00,2013-04-29 21:35:00,
2013-04-29 15:38:00,63.9,26.4,0.00,ESE,109,8.1,8.1,24,0.00,,---,0.00,VWS V14.00,2013-04-29 21:38:00,
2013-04-29 15:39:00,63.9,26.4,0.00,East,101,5.8,8.1,24,0.00,,---,0.00,VWS V14.00,2013-04-29 21:39:00,
2013-04-29 15:40:00,63.9,26.4,0.00,East,98,8.3,8.3,24,0.00,,---,0.00,VWS V14.00,2013-04-29 21:40:00,
2013-04-29 15:43:00,64.0,26.5,0.00,SE,140,5.4,5.4,24,0.00,,---,0.00,VWS V14.00,2013-04-29 21:43:00,
2013-04-29 15:44:00,64.0,26.5,0.00,ESE,111,5.8,6.3,24,0.00,,---,0.00,VWS V14.00,2013-04-29 21:44:00,
2013-04-29 15:45:00,64.2,26.7,0.00,SE,135,2.7,5.8,24,0.00,,---,0.00,VWS V14.00,2013-04-29 21:45:00,
2013-04-29 15:48:00,64.2,26.7,0.00,East,95,6.7,6.7,24,0.00,,---,0.00,VWS V14.00,2013-04-29 21:48:00,
2013-04-29 15:49:00,64.0,26.5,0.00,ENE,65,6.3,7.6,24,0.00,,---,0.00,VWS V14.00,2013-04-29 21:49:00,
2013-04-29 15:50:00,64.0,26.5,0.00,East,88,5.8,8.3,24,0.00,,---,0.00,VWS V14.00,2013-04-29 21:50:00,
2013-04-29 15:53:00,64.2,26.7,0.00,East,98,5.8,10.1,24,0.00,,---,0.00,VWS V14.00,2013-04-29 21:53:00,
2013-04-29 15:54:00,64.2,26.7,0.00,ESE,107,8.3,9.6,24,0.00,,---,0.00,VWS V14.00,2013-04-29 21:54:00,
2013-04-29 15:56:00,64.2,26.7,0.00,East,98,5.4,8.1,24,0.00,,---,0.00,VWS V14.00,2013-04-29 21:56:00,
2013-04-29 15:58:00,64.4,25.8,0.00,SE,144,6.3,6.3,23,0.00,,---,0.00,VWS V14.00,2013-04-29 21:58:00,
2013-04-29 15:59:00,64.4,25.8,0.00,ESE,117,3.1,6.3,23,0.00,,---,0.00,VWS V14.00,2013-04-29 21:59:00,
2013-04-29 16:01:00,64.4,25.8,0.00,South,172,3.1,10.5,23,0.00,,---,0.00,VWS V14.00,2013-04-29 22:01:00,
2013-04-29 16:03:00,64.4,25.8,0.00,ESE,107,8.1,8.1,23,0.00,,---,0.00,VWS V14.00,2013-04-29 22:03:00,
2013-04-29 16:04:00,64.6,26.0,0.00,South,169,3.6,8.1,23,0.00,,---,0.00,VWS V14.00,2013-04-29 22:04:00,
2013-04-29 16:06:00,64.6,26.0,0.00,East,89,4.0,4.0,23,0.00,,---,0.00,VWS V14.00,2013-04-29 22:06:00,
2013-04-29 16:08:00,64.4,25.8,0.00,East,91,4.0,4.0,23,0.00,,---,0.00,VWS V14.00,2013-04-29 22:08:00,
2013-04-29 16:09:00,64.6,26.0,0.00,ESE,116,4.9,4.9,23,0.00,,---,0.00,VWS V14.00,2013-04-29 22:09:00,
2013-04-29 16:10:00,64.6,26.0,0.00,East,101,4.9,5.4,23,0.00,,---,0.00,VWS V14.00,2013-04-29 22:10:00,
2013-04-29 16:11:00,64.6,26.0,0.00,ESE,112,4.9,4.9,23,0.00,,---,0.00,VWS V14.00,2013-04-29 22:11:00,
2013-04-29 16:12:00,64.8,26.1,0.00,SE,125,5.8,5.8,23,0.00,,---,0.00,VWS V14.00,2013-04-29 22:12:00,
2013-04-29 16:13:00,64.8,26.1,0.00,SE,135,6.3,6.3,23,0.00,,---,0.00,VWS V14.00,2013-04-29 22:13:00,
2013-04-29 16:14:00,64.8,26.1,0.00,SSW,210,3.1,6.3,23,0.00,,---,0.00,VWS V14.00,2013-04-29 22:14:00,
2013-04-29 16:15:00,64.8,26.1,0.00,SE,135,5.4,6.3,23,0.00,,---,0.00,VWS V14.00,2013-04-29 22:15:00,
2013-04-29 16:16:00,64.9,26.3,0.00,East,91,7.6,7.6,23,0.00,,---,0.00,VWS V14.00,2013-04-29 22:16:00,
2013-04-29 16:17:00,64.9,26.3,0.00,WSW,243,4.9,8.1,23,0.00,,---,0.00,VWS V14.00,2013-04-29 22:17:00,
2013-04-29 16:18:00,64.9,26.3,0.00,East,93,5.4,10.1,23,0.00,,---,0.00,VWS V14.00,2013-04-29 22:18:00,
2013-04-29 16:19:00,64.9,26.3,0.00,SE,142,7.6,7.6,23,0.00,,---,0.00,VWS V14.00,2013-04-29 22:19:00,
2013-04-29 16:20:00,64.8,26.1,0.00,ESE,121,5.8,5.8,23,0.00,,---,0.00,VWS V14.00,2013-04-29 22:20:00,
2013-04-29 16:21:00,64.8,26.1,0.00,ESE,104,12.3,12.3,23,0.00,,---,0.00,VWS V14.00,2013-04-29 22:21:00,
2013-04-29 16:22:00,64.8,26.1,0.00,ESE,110,11.4,12.3,23,0.00,,---,0.00,VWS V14.00,2013-04-29 22:22:00,
2013-04-29 16:24:00,64.9,26.3,0.00,East,81,4.0,4.0,23,0.00,,---,0.00,VWS V14.00,2013-04-29 22:24:00,
2013-04-29 16:25:00,64.9,26.3,0.00,East,87,5.8,5.8,23,0.00,,---,0.00,VWS V14.00,2013-04-29 22:25:00,
2013-04-29 16:26:00,65.1,26.4,0.00,ESE,109,12.3,12.3,23,0.00,,---,0.00,VWS V14.00,2013-04-29 22:26:00,
2013-04-29 16:27:00,65.1,26.4,0.00,ESE,116,5.4,5.4,23,0.00,,---,0.00,VWS V14.00,2013-04-29 22:27:00,
2013-04-29 16:29:00,65.1,26.4,0.00,ESE,115,6.3,6.3,23,0.00,,---,0.00,VWS V14.00,2013-04-29 22:29:00,
2013-04-29 16:30:00,65.1,26.4,0.00,East,96,8.1,10.1,23,0.00,,---,0.00,VWS V14.00,2013-04-29 22:30:00,
2013-04-29 16:32:00,65.1,26.4,0.00,East,98,6.3,6.3,23,0.00,,---,0.00,VWS V14.00,2013-04-29 22:32:00,
2013-04-29 16:34:00,65.1,26.4,0.00,SSE,159,3.6,4.9,23,0.00,,---,0.00,VWS V14.00,2013-04-29 22:34:00,
2013-04-29 16:35:00,65.1,26.4,0.00,SW,218,4.0,7.6,23,0.00,,---,0.00,VWS V14.00,2013-04-29 22:35:00,
2013-04-29 16:37:00,64.9,26.3,0.00,SE,127,8.1,8.1,23,0.00,,---,0.00,VWS V14.00,2013-04-29 22:37:00,
2013-04-29 16:39:00,64.8,26.1,0.00,SE,142,3.6,4.0,23,0.00,,---,0.00,VWS V14.00,2013-04-29 22:39:00,
2013-04-29 16:40:00,64.8,26.1,0.00,SSW,206,0.0,4.0,23,0.00,,---,0.00,VWS V14.00,2013-04-29 22:40:00,
2013-04-29 16:42:00,64.8,26.1,0.00,SSE,147,10.1,10.1,23,0.00,,---,0.00,VWS V14.00,2013-04-29 22:42:00,
2013-04-29 16:44:00,64.6,26.0,0.00,ENE,60,5.4,5.8,23,0.00,,---,0.00,VWS V14.00,2013-04-29 22:44:00,
2013-04-29 16:45:00,64.6,26.0,0.00,ESE,120,5.4,5.8,23,0.00,,---,0.00,VWS V14.00,2013-04-29 22:45:00,
2013-04-29 16:47:00,64.6,26.0,0.00,SSE,150,5.4,5.4,23,0.00,,---,0.00,VWS V14.00,2013-04-29 22:47:00,
2013-04-29 16:49:00,64.4,25.8,0.00,SE,128,3.1,4.0,23,0.00,,---,0.00,VWS V14.00,2013-04-29 22:49:00,
2013-04-29 16:50:00,64.4,25.8,0.00,ESE,115,4.0,4.0,23,0.00,,---,0.00,VWS V14.00,2013-04-29 22:50:00,
2013-04-29 16:53:00,64.4,25.8,0.00,ESE,118,3.6,6.3,23,0.00,,---,0.00,VWS V14.00,2013-04-29 22:53:00,
2013-04-29 16:55:00,64.4,25.8,0.00,ESE,108,4.9,10.1,23,0.00,,---,0.00,VWS V14.00,2013-04-29 22:55:00,
2013-04-29 16:56:00,64.2,26.7,0.00,SW,227,3.1,6.3,24,0.00,,---,0.00,VWS V14.00,2013-04-29 22:56:00,
2013-04-29 16:58:00,64.2,26.7,0.00,SE,144,5.4,5.4,24,0.00,,---,0.00,VWS V14.00,2013-04-29 22:58:00,
2013-04-29 17:00:00,64.2,26.7,0.00,East,84,5.4,5.4,24,0.00,,---,0.00,VWS V14.00,2013-04-29 23:00:00,
2013-04-29 17:01:00,64.2,26.7,0.00,East,89,5.8,5.8,24,0.00,,---,0.00,VWS V14.00,2013-04-29 23:01:00,
2013-04-29 17:03:00,64.2,26.7,0.00,SE,142,5.4,8.7,24,0.00,,---,0.00,VWS V14.00,2013-04-29 23:03:00,
2013-04-29 17:05:00,64.0,26.5,0.00,SW,226,7.6,7.6,24,0.00,,---,0.00,VWS V14.00,2013-04-29 23:05:00,
2013-04-29 17:06:00,64.0,26.5,0.00,ESE,110,5.4,5.4,24,0.00,,---,0.00,VWS V14.00,2013-04-29 23:06:00,
2013-04-29 17:08:00,64.0,26.5,0.00,SE,144,3.6,5.8,24,0.00,,---,0.00,VWS V14.00,2013-04-29 23:08:00,
2013-04-29 17:10:00,63.7,25.2,0.00,ESE,110,4.0,4.0,23,0.00,,---,0.00,VWS V14.00,2013-04-29 23:10:00,
2013-04-29 17:11:00,63.5,26.1,0.00,SE,142,3.6,6.3,24,0.00,,---,0.00,VWS V14.00,2013-04-29 23:11:00,
2013-04-29 17:13:00,63.5,26.1,0.00,South,175,5.4,5.4,24,0.00,,---,0.00,VWS V14.00,2013-04-29 23:13:00,
2013-04-29 17:15:00,63.3,25.9,0.00,SE,136,6.3,6.3,24,0.00,,---,0.00,VWS V14.00,2013-04-29 23:15:00,
2013-04-29 17:16:00,63.3,25.9,0.00,East,85,5.8,6.3,24,0.00,,---,0.00,VWS V14.00,2013-04-29 23:16:00,
2013-04-29 17:18:00,63.1,25.8,0.00,ESE,110,11.0,11.0,24,0.00,,---,0.00,VWS V14.00,2013-04-29 23:18:00,
2013-04-29 17:20:00,63.1,25.8,0.00,East,90,3.1,4.0,24,0.00,,---,0.00,VWS V14.00,2013-04-29 23:20:00,
2013-04-29 17:21:00,63.0,25.6,0.00,East,79,3.1,4.9,24,0.00,,---,0.00,VWS V14.00,2013-04-29 23:21:00,
2013-04-29 17:23:00,63.0,25.6,0.00,South,177,2.2,5.8,24,0.00,,---,0.00,VWS V14.00,2013-04-29 23:23:00,
2013-04-29 17:25:00,62.8,25.5,0.00,SE,136,3.1,4.0,24,0.00,,---,0.00,VWS V14.00,2013-04-29 23:25:00,
2013-04-29 17:26:00,62.8,25.5,0.00,SSE,158,0.0,4.9,24,0.00,,---,0.00,VWS V14.00,2013-04-29 23:26:00,
2013-04-29 17:27:00,62.8,25.5,0.00,NNE,32,8.3,8.3,24,0.00,,---,0.00,VWS V14.00,2013-04-29 23:27:00,
2013-04-29 17:28:00,62.6,25.3,0.00,ESE,112,8.3,13.2,24,0.00,,---,0.00,VWS V14.00,2013-04-29 23:28:00,
2013-04-29 17:30:00,62.4,25.2,0.00,East,81,4.9,8.7,24,0.00,,---,0.00,VWS V14.00,2013-04-29 23:30:00,
2013-04-29 17:31:00,62.4,25.2,0.00,East,94,8.1,8.7,24,0.00,,---,0.00,VWS V14.00,2013-04-29 23:31:00,
2013-04-29 17:32:00,62.4,25.2,0.00,NE,54,7.6,8.1,24,0.00,,---,0.00,VWS V14.00,2013-04-29 23:32:00,
2013-04-29 17:33:00,62.2,25.0,0.00,ESE,107,5.4,7.2,24,0.00,,---,0.00,VWS V14.00,2013-04-29 23:33:00,
2013-04-29 17:35:00,62.2,25.0,0.00,ENE,69,6.3,7.2,24,0.00,,---,0.00,VWS V14.00,2013-04-29 23:35:00,
2013-04-29 17:36:00,62.2,25.0,0.00,SE,124,7.6,7.6,24,0.00,,---,0.00,VWS V14.00,2013-04-29 23:36:00,
2013-04-29 17:37:00,62.1,24.9,0.00,ESE,108,8.7,9.2,24,0.00,,---,0.00,VWS V14.00,2013-04-29 23:37:00,
2013-04-29 17:38:00,61.9,24.7,0.00,East,90,5.8,8.7,24,0.00,,---,0.00,VWS V14.00,2013-04-29 23:38:00,
2013-04-29 17:39:00,61.9,24.7,0.00,East,101,4.0,8.7,24,0.00,,---,0.00,VWS V14.00,2013-04-29 23:39:00,
2013-04-29 17:40:00,61.7,24.6,0.00,SE,138,5.8,6.3,24,0.00,,---,0.00,VWS V14.00,2013-04-29 23:40:00,
2013-04-29 17:41:00,61.7,24.6,0.00,ENE,71,5.4,6.3,24,0.00,,---,0.00,VWS V14.00,2013-04-29 23:41:00,
2013-04-29 17:42:00,61.7,24.6,0.00,ESE,121,5.8,5.8,24,0.00,,---,0.00,VWS V14.00,2013-04-29 23:42:00,
2013-04-29 17:43:00,61.7,24.6,0.00,SE,130,8.3,9.6,24,0.00,,---,0.00,VWS V14.00,2013-04-29 23:43:00,
2013-04-29 17:44:00,61.5,24.4,0.00,ESE,115,6.3,8.3,24,0.00,,---,0.00,VWS V14.00,2013-04-29 23:44:00,
2013-04-29 17:46:00,61.5,24.4,0.00,East,96,4.0,6.3,24,0.00,,---,0.00,VWS V14.00,2013-04-29 23:46:00,
2013-04-29 17:47:00,61.3,24.3,0.00,SE,146,3.1,4.0,24,0.00,,---,0.00,VWS V14.00,2013-04-29 23:47:00,
2013-04-29 17:48:00,61.3,24.3,0.00,ESE,103,5.4,8.7,24,0.00,,---,0.00,VWS V14.00,2013-04-29 23:48:00,
2013-04-29 17:49:00,61.3,24.3,0.00,East,87,4.9,4.9,24,0.00,,---,0.00,VWS V14.00,2013-04-29 23:49:00,
2013-04-29 17:51:00,61.3,24.3,0.00,ESE,117,6.3,6.3,24,0.00,,---,0.00,VWS V14.00,2013-04-29 23:51:00,
2013-04-29 17:52:00,61.3,24.3,0.00,East,99,4.9,6.3,24,0.00,,---,0.00,VWS V14.00,2013-04-29 23:52:00,
2013-04-29 17:53:00,61.3,24.3,0.00,SW,214,6.3,6.3,24,0.00,,---,0.00,VWS V14.00,2013-04-29 23:53:00,
2013-04-29 17:54:00,61.3,24.3,0.00,ESE,114,11.0,11.0,24,0.00,,---,0.00,VWS V14.00,2013-04-29 23:54:00,
2013-04-29 17:56:00,61.3,24.3,0.00,SSE,148,4.0,10.5,24,0.00,,---,0.00,VWS V14.00,2013-04-29 23:56:00,
2013-04-29 17:57:00,61.3,24.3,0.00,ESE,103,5.8,5.8,24,0.00,,---,0.00,VWS V14.00,2013-04-29 23:57:00,
2013-04-29 17:58:00,61.3,24.3,0.00,SE,139,3.6,5.8,24,0.00,,---,0.00,VWS V14.00,2013-04-29 23:58:00,
2013-04-29 17:59:00,61.2,24.1,0.00,ESE,114,4.9,7.6,24,0.00,,---,0.00,VWS V14.00,2013-04-29 23:59:00,
2013-04-29 18:01:00,61.3,24.3,0.00,ENE,74,4.0,4.9,24,0.00,,---,0.00,VWS V14.00,2013-04-30 00:01:00,
2013-04-29 18:02:00,61.3,24.3,0.00,SW,221,5.8,8.1,24,0.00,,---,0.00,VWS V14.00,2013-04-30 00:02:00,
2013-04-29 18:03:00,61.2,24.1,0.00,East,99,7.6,7.6,24,0.00,,---,0.00,VWS V14.00,2013-04-30 00:03:00,
2013-04-29 18:05:00,61.2,24.1,0.00,SE,124,5.8,8.3,24,0.00,,---,0.00,VWS V14.00,2013-04-30 00:05:00,
2013-04-29 18:06:00,61.0,24.0,0.00,SSE,151,7.6,7.6,24,0.00,,---,0.00,VWS V14.00,2013-04-30 00:06:00,
2013-04-29 18:07:00,61.0,24.0,0.00,SSE,154,4.9,4.9,24,0.00,,---,0.00,VWS V14.00,2013-04-30 00:07:00,
2013-04-29 18:08:00,61.0,24.0,0.00,East,94,5.8,5.8,24,0.00,,---,0.00,VWS V14.00,2013-04-30 00:08:00,
2013-04-29 18:10:00,61.0,24.0,0.00,ESE,115,3.6,6.3,24,0.00,,---,0.00,VWS V14.00,2013-04-30 00:10:00,
2013-04-29 18:11:00,61.0,24.0,0.00,East,83,5.4,5.4,24,0.00,,---,0.00,VWS V14.00,2013-04-30 00:11:00,
2013-04-29 18:12:00,60.8,23.8,0.00,East,84,9.6,9.6,24,0.00,,---,0.00,VWS V14.00,2013-04-30 00:12:00,
2013-04-29 18:13:00,60.8,23.8,0.00,ENE,58,3.6,9.6,24,0.00,,---,0.00,VWS V14.00,2013-04-30 00:13:00,
2013-04-29 18:14:00,60.8,23.8,0.00,SE,146,6.7,6.7,24,0.00,,---,0.00,VWS V14.00,2013-04-30 00:14:00,
2013-04-29 18:15:00,60.8,23.8,0.00,ESE,103,3.6,5.8,24,0.00,,---,0.00,VWS V14.00,2013-04-30 00:15:00,
2013-04-29 18:16:00,60.6,23.6,0.00,ESE,109,8.3,8.3,24,0.00,,---,0.00,VWS V14.00,2013-04-30 00:16:00,
2013-04-29 18:17:00,60.6,23.6,0.00,SE,143,2.7,4.0,24,0.00,,---,0.00,VWS V14.00,2013-04-30 00:17:00,
2013-04-29 18:18:00,60.6,23.6,0.00,SE,138,5.8,5.8,24,0.00,,---,0.00,VWS V14.00,2013-04-30 00:18:00,
2013-04-29 18:19:00,60.6,23.6,0.00,East,88,5.8,8.3,24,0.00,,---,0.00,VWS V14.00,2013-04-30 00:19:00,
2013-04-29 18:20:00,60.6,23.6,0.00,SE,137,2.7,12.8,24,0.00,,---,0.00,VWS V14.00,2013-04-30 00:20:00,
2013-04-29 18:21:00,60.4,23.5,0.00,East,98,8.1,8.1,24,0.00,,---,0.00,VWS V14.00,2013-04-30 00:21:00,
2013-04-29 18:22:00,60.4,23.5,0.00,SE,124,5.4,5.4,24,0.00,,---,0.00,VWS V14.00,2013-04-30 00:22:00,
2013-04-29 18:24:00,60.4,23.5,0.00,SE,131,5.4,5.8,24,0.00,,---,0.00,VWS V14.00,2013-04-30 00:24:00,
2013-04-29 18:25:00,60.4,23.5,0.00,East,87,4.9,7.6,24,0.00,,---,0.00,VWS V14.00,2013-04-30 00:25:00,
2013-04-29 18:26:00,60.3,23.4,0.00,SE,137,7.6,7.6,24,0.00,,---,0.00,VWS V14.00,2013-04-30 00:26:00,
2013-04-29 18:27:00,60.3,23.4,0.00,SE,137,4.9,6.3,24,0.00,,---,0.00,VWS V14.00,2013-04-30 00:27:00,
2013-04-29 18:29:00,60.3,23.4,0.00,ESE,123,5.4,5.4,24,0.00,,---,0.00,VWS V14.00,2013-04-30 00:29:00,
2013-04-29 18:30:00,60.3,23.4,0.00,ESE,119,2.2,6.3,24,0.00,,---,0.00,VWS V14.00,2013-04-30 00:30:00,
2013-04-29 18:32:00,60.1,23.2,0.00,East,93,3.6,4.9,24,0.00,,---,0.00,VWS V14.00,2013-04-30 00:32:00,
2013-04-29 18:33:00,60.1,23.2,0.00,SE,129,5.8,5.8,24,0.00,,---,0.00,VWS V14.00,2013-04-30 00:33:00,
2013-04-29 18:34:00,60.1,23.2,0.00,East,98,3.6,5.8,24,0.00,,---,0.00,VWS V14.00,2013-04-30 00:34:00,
2013-04-29 18:35:00,60.1,23.2,0.00,ESE,114,3.1,4.0,24,0.00,,---,0.00,VWS V14.00,2013-04-30 00:35:00,
2013-04-29 18:37:00,60.1,23.2,0.00,SW,222,2.7,2.7,24,0.00,,---,0.00,VWS V14.00,2013-04-30 00:37:00,
2013-04-29 18:38:00,60.1,23.2,0.00,SE,134,0.0,4.0,24,0.00,,---,0.00,VWS V14.00,2013-04-30 00:38:00,
2013-04-29 18:39:00,60.1,23.2,0.00,ESE,107,5.8,5.8,24,0.00,,---,0.00,VWS V14.00,2013-04-30 00:39:00,
2013-04-29 18:40:00,59.9,23.0,0.00,SW,236,0.0,2.7,24,0.00,,---,0.00,VWS V14.00,2013-04-30 00:40:00,
2013-04-29 18:42:00,59.9,23.0,0.00,ESE,102,0.0,4.0,24,0.00,,---,0.00,VWS V14.00,2013-04-30 00:42:00,
2013-04-29 18:43:00,59.9,23.0,0.00,East,80,4.0,5.4,24,0.00,,---,0.00,VWS V14.00,2013-04-30 00:43:00,
2013-04-29 18:44:00,59.7,22.9,0.00,East,101,3.1,6.3,24,0.00,,---,0.00,VWS V14.00,2013-04-30 00:44:00,
2013-04-29 18:45:00,59.7,22.9,0.00,SW,220,5.8,6.3,24,0.00,,---,0.00,VWS V14.00,2013-04-30 00:45:00,
2013-04-29 18:48:00,59.7,22.9,0.00,SSE,147,6.3,8.1,24,0.00,,---,0.00,VWS V14.00,2013-04-30 00:48:00,
2013-04-29 18:49:00,59.5,22.7,0.00,SE,135,8.1,8.1,24,0.00,,---,0.00,VWS V14.00,2013-04-30 00:49:00,
2013-04-29 18:50:00,59.5,22.7,0.00,ENE,73,5.4,10.1,24,0.00,,---,0.00,VWS V14.00,2013-04-30 00:50:00,
2013-04-29 18:53:00,59.4,22.6,0.00,ENE,59,5.8,8.3,24,0.00,,---,0.00,VWS V14.00,2013-04-30 00:53:00,
2013-04-29 18:54:00,59.4,22.6,0.00,ENE,78,3.6,5.8,24,0.00,,---,0.00,VWS V14.00,2013-04-30 00:54:00,
2013-04-29 18:55:00,59.4,22.6,0.00,SE,140,4.0,5.8,24,0.00,,---,0.00,VWS V14.00,2013-04-30 00:55:00,
2013-04-29 18:58:00,59.2,22.4,0.00,SE,128,6.3,6.3,24,0.00,,---,0.00,VWS V14.00,2013-04-30 00:58:00,
2013-04-29 18:59:00,59.2,22.4,0.00,ESE,114,5.8,6.3,24,0.00,,---,0.00,VWS V14.00,2013-04-30 00:59:00,
2013-04-29 19:00:00,59.2,22.4,0.00,East,90,6.3,8.1,24,0.00,,---,0.00,VWS V14.00,2013-04-30 01:00:00,
2013-04-29 19:01:00,59.2,22.4,0.00,SE,136,7.6,8.1,24,0.00,,---,0.00,VWS V14.00,2013-04-30 01:01:00,
2013-04-29 19:03:00,59.0,22.3,0.00,ESE,118,3.6,6.3,24,0.00,,---,0.00,VWS V14.00,2013-04-30 01:03:00,
2013-04-29 19:04:00,58.8,23.1,0.00,ESE,119,6.3,6.3,25,0.00,,---,0.00,VWS V14.00,2013-04-30 01:04:00,
2013-04-29 19:06:00,58.8,23.1,0.00,ESE,115,3.1,8.1,25,0.00,,---,0.00,VWS V14.00,2013-04-30 01:06:00,
2013-04-29 19:08:00,58.8,23.1,0.00,South,175,4.9,4.9,25,0.00,,---,0.00,VWS V14.00,2013-04-30 01:08:00,
2013-04-29 19:09:00,58.8,23.1,0.00,ESE,112,4.9,4.9,25,0.00,,---,0.00,VWS V14.00,2013-04-30 01:09:00,
2013-04-29 19:11:00,58.6,22.9,0.00,East,95,6.3,6.3,25,0.00,,---,0.00,VWS V14.00,2013-04-30 01:11:00,
2013-04-29 19:13:00,58.5,22.8,0.00,SE,125,2.7,4.9,25,0.00,,---,0.00,VWS V14.00,2013-04-30 01:13:00,
2013-04-29 19:14:00,58.5,22.8,0.00,ESE,111,0.0,3.1,25,0.00,,---,0.00,VWS V14.00,2013-04-30 01:14:00,
2013-04-29 19:16:00,58.5,22.8,0.00,SE,125,4.0,4.0,25,0.00,,---,0.00,VWS V14.00,2013-04-30 01:16:00,
2013-04-29 19:18:00,58.3,22.6,0.00,SE,128,0.0,0.0,25,0.00,,---,0.00,VWS V14.00,2013-04-30 01:18:00,
2013-04-29 19:19:00,58.3,22.6,0.00,SE,143,2.7,2.7,25,0.00,,---,0.00,VWS V14.00,2013-04-30 01:19:00,
2013-04-29 19:21:00,58.3,22.6,0.00,SE,133,0.0,0.0,25,0.00,,---,0.00,VWS V14.00,2013-04-30 01:21:00,
2013-04-29 19:22:00,58.3,22.6,0.00,SE,133,0.0,0.0,25,0.00,,---,0.00,VWS V14.00,2013-04-30 01:22:00,
2013-04-29 19:23:00,58.1,22.5,0.00,South,173,0.0,0.0,25,0.00,,---,0.00,VWS V14.00,2013-04-30 01:23:00,
2013-04-29 19:24:00,58.1,22.5,0.00,South,173,0.0,0.0,25,0.00,,---,0.00,VWS V14.00,2013-04-30 01:24:00,
2013-04-29 19:27:00,58.1,22.5,0.00,SSE,155,0.0,0.0,25,0.00,,---,0.00,VWS V14.00,2013-04-30 01:27:00,
2013-04-29 19:28:00,57.9,22.3,0.00,SE,142,0.0,4.9,25,0.00,,---,0.00,VWS V14.00,2013-04-30 01:28:00,
2013-04-29 19:29:00,57.9,22.3,0.00,SE,141,0.0,0.0,25,0.00,,---,0.00,VWS V14.00,2013-04-30 01:29:00,
2013-04-29 19:30:00,57.9,22.3,0.00,WSW,257,0.0,0.0,25,0.00,,---,0.00,VWS V14.00,2013-04-30 01:30:00,
2013-04-29 19:32:00,57.7,22.2,0.00,ESE,120,3.1,3.6,25,0.00,,---,0.00,VWS V14.00,2013-04-30 01:32:00,
2013-04-29 19:34:00,57.7,22.2,0.00,East,94,3.6,4.0,25,0.00,,---,0.00,VWS V14.00,2013-04-30 01:34:00,
2013-04-29 19:35:00,57.6,22.0,0.00,East,94,0.0,0.0,25,0.00,,---,0.00,VWS V14.00,2013-04-30 01:35:00,
2013-04-29 19:37:00,57.6,22.0,0.00,SE,128,3.1,3.6,25,0.00,,---,0.00,VWS V14.00,2013-04-30 01:37:00,
2013-04-29 19:38:00,57.4,21.9,0.00,ENE,73,2.7,3.6,25,0.00,,---,0.00,VWS V14.00,2013-04-30 01:38:00,
2013-04-29 19:39:00,57.4,21.9,0.00,East,92,0.0,3.1,25,0.00,,---,0.00,VWS V14.00,2013-04-30 01:39:00,
2013-04-29 19:40:00,57.4,21.9,0.00,ESE,111,3.6,3.6,25,0.00,,---,0.00,VWS V14.00,2013-04-30 01:40:00,
2013-04-29 19:42:00,57.2,21.7,0.00,East,85,7.6,7.6,25,0.00,,---,0.00,VWS V14.00,2013-04-30 01:42:00,
2013-04-29 19:44:00,57.0,21.6,0.00,East,93,0.0,3.1,25,0.00,,---,0.00,VWS V14.00,2013-04-30 01:44:00,
2013-04-29 19:45:00,57.0,21.6,0.00,ENE,76,0.0,0.0,25,0.00,,---,0.00,VWS V14.00,2013-04-30 01:45:00,
2013-04-29 19:47:00,56.8,21.4,0.00,SE,133,0.0,2.2,25,0.00,,---,0.00,VWS V14.00,2013-04-30 01:47:00,
2013-04-29 19:49:00,56.8,21.4,0.00,SSE,148,0.0,0.0,25,0.00,,---,0.00,VWS V14.00,2013-04-30 01:49:00,
2013-04-29 19:50:00,56.8,21.4,0.00,ESE,114,3.1,3.1,25,0.00,,---,0.00,VWS V14.00,2013-04-30 01:50:00,
2013-04-29 19:52:00,56.7,21.3,0.00,ESE,110,2.7,2.7,25,0.00,,---,0.00,VWS V14.00,2013-04-30 01:52:00,
2013-04-29 19:54:00,56.5,21.1,0.00,ESE,112,0.0,2.2,25,0.00,,---,0.00,VWS V14.00,2013-04-30 01:54:00,
2013-04-29 19:55:00,56.5,21.1,0.00,East,86,2.7,2.7,25,0.00,,---,0.00,VWS V14.00,2013-04-30 01:55:00,
2013-04-29 19:57:00,56.3,21.0,0.00,East,84,0.0,0.0,25,0.00,,---,0.00,VWS V14.00,2013-04-30 01:57:00,
2013-04-29 19:59:00,56.1,20.8,0.00,East,84,0.0,0.0,25,0.00,,---,0.00,VWS V14.00,2013-04-30 01:59:00,
2013-04-29 20:00:00,56.1,20.8,0.00,ESE,113,0.0,0.0,25,0.00,,---,0.00,VWS V14.00,2013-04-30 02:00:00,
2013-04-29 20:02:00,55.9,20.6,0.00,SSE,149,0.0,0.0,25,0.00,,---,0.00,VWS V14.00,2013-04-30 02:02:00,
2013-04-29 20:04:00,55.9,20.6,0.00,NE,49,2.2,2.7,25,0.00,,---,0.00,VWS V14.00,2013-04-30 02:04:00,
2013-04-29 20:05:00,55.9,20.6,0.00,NE,48,0.0,2.7,25,0.00,,---,0.00,VWS V14.00,2013-04-30 02:05:00,
2013-04-29 20:07:00,55.8,20.5,0.00,ENE,61,0.0,0.0,25,0.00,,---,0.00,VWS V14.00,2013-04-30 02:07:00,
2013-04-29 20:08:00,55.8,20.5,0.00,ENE,61,0.0,0.0,25,0.00,,---,0.00,VWS V14.00,2013-04-30 02:08:00,
2013-04-29 20:09:00,55.6,20.3,0.00,East,94,0.0,0.0,25,0.00,,---,0.00,VWS V14.00,2013-04-30 02:09:00,
2013-04-29 20:10:00,55.6,20.3,0.00,East,94,0.0,0.0,25,0.00,,---,0.00,VWS V14.00,2013-04-30 02:10:00,
2013-04-29 20:11:00,55.6,20.3,0.00,East,94,0.0,0.0,25,0.00,,---,0.00,VWS V14.00,2013-04-30 02:11:00,
2013-04-29 20:12:00,55.4,20.2,0.00,WSW,248,0.0,0.0,25,0.00,,---,0.00,VWS V14.00,2013-04-30 02:12:00,
2013-04-29 20:13:00,55.4,20.2,0.00,WSW,250,0.0,0.0,25,0.00,,---,0.00,VWS V14.00,2013-04-30 02:13:00,
2013-04-29 20:14:00,55.2,21.0,0.00,ENE,69,0.0,0.0,26,0.00,,---,0.00,VWS V14.00,2013-04-30 02:14:00,
2013-04-29 20:15:00,55.2,21.0,0.00,SE,124,3.1,4.9,26,0.00,,---,0.00,VWS V14.00,2013-04-30 02:15:00,
2013-04-29 20:16:00,55.2,21.0,0.00,East,99,2.7,4.9,26,0.00,,---,0.00,VWS V14.00,2013-04-30 02:16:00,
2013-04-29 20:17:00,55.0,20.8,0.00,SSE,154,0.0,0.0,26,0.00,,---,0.00,VWS V14.00,2013-04-30 02:17:00,
2013-04-29 20:18:00,55.0,20.8,0.00,ESE,121,2.7,2.7,26,0.00,,---,0.00,VWS V14.00,2013-04-30 02:18:00,
2013-04-29 20:19:00,54.9,20.6,0.00,SE,146,4.0,4.0,26,0.00,,---,0.00,VWS V14.00,2013-04-30 02:19:00,
2013-04-29 20:20:00,54.9,20.6,0.00,ESE,116,3.1,3.1,26,0.00,,---,0.00,VWS V14.00,2013-04-30 02:20:00,
2013-04-29 20:21:00,54.9,20.6,0.00,ESE,118,0.0,3.1,26,0.00,,---,0.00,VWS V14.00,2013-04-30 02:21:00,
2013-04-29 20:23:00,54.7,20.5,0.00,SSE,157,3.1,3.6,26,0.00,,---,0.00,VWS V14.00,2013-04-30 02:23:00,
2013-04-29 20:24:00,54.5,20.3,0.00,ESE,113,0.0,0.0,26,0.00,,---,0.00,VWS V14.00,2013-04-30 02:24:00,
2013-04-29 20:25:00,54.5,20.3,0.00,ESE,113,0.0,0.0,26,0.00,,---,0.00,VWS V14.00,2013-04-30 02:25:00,
2013-04-29 20:26:00,54.5,20.3,0.00,ESE,113,0.0,0.0,26,0.00,,---,0.00,VWS V14.00,2013-04-30 02:26:00,
2013-04-29 20:28:00,54.5,20.3,0.00,SSE,153,0.0,0.0,26,0.00,,---,0.00,VWS V14.00,2013-04-30 02:28:00,
2013-04-29 20:30:00,54.3,20.2,0.00,South,169,0.0,0.0,26,0.00,,---,0.00,VWS V14.00,2013-04-30 02:30:00,
2013-04-29 20:31:00,54.3,20.2,0.00,South,169,0.0,0.0,26,0.00,,---,0.00,VWS V14.00,2013-04-30 02:31:00,
2013-04-29 20:33:00,54.1,20.0,0.00,South,169,0.0,0.0,26,0.00,,---,0.00,VWS V14.00,2013-04-30 02:33:00,
2013-04-29 20:35:00,54.1,20.0,0.00,South,169,0.0,0.0,26,0.00,,---,0.00,VWS V14.00,2013-04-30 02:35:00,
2013-04-29 20:37:00,54.0,19.9,0.00,South,169,0.0,0.0,26,0.00,,---,0.00,VWS V14.00,2013-04-30 02:37:00,
2013-04-29 20:38:00,54.0,19.9,0.00,South,169,0.0,0.0,26,0.00,,---,0.00,VWS V14.00,2013-04-30 02:38:00,
2013-04-29 20:40:00,53.8,19.7,0.00,ESE,104,0.0,2.7,26,0.00,,---,0.00,VWS V14.00,2013-04-30 02:40:00,
2013-04-29 20:42:00,53.8,19.7,0.00,ESE,104,0.0,0.0,26,0.00,,---,0.00,VWS V14.00,2013-04-30 02:42:00,
2013-04-29 20:43:00,53.6,19.6,0.00,ESE,104,0.0,0.0,26,0.00,,---,0.00,VWS V14.00,2013-04-30 02:43:00,
2013-04-29 20:45:00,53.6,19.6,0.00,ESE,104,0.0,0.0,26,0.00,,---,0.00,VWS V14.00,2013-04-30 02:45:00,
2013-04-29 20:47:00,53.4,19.4,0.00,ESE,104,0.0,0.0,26,0.00,,---,0.00,VWS V14.00,2013-04-30 02:47:00,
2013-04-29 20:48:00,53.2,19.3,0.00,ESE,114,0.0,0.0,26,0.00,,---,0.00,VWS V14.00,2013-04-30 02:48:00,
2013-04-29 20:49:00,53.2,19.3,0.00,ESE,114,0.0,0.0,26,0.00,,---,0.00,VWS V14.00,2013-04-30 02:49:00,
2013-04-29 20:50:00,53.1,19.1,0.00,ESE,114,0.0,0.0,26,0.00,,---,0.00,VWS V14.00,2013-04-30 02:50:00,
2013-04-29 20:52:00,53.1,19.1,0.00,ESE,113,0.0,0.0,26,0.00,,---,0.00,VWS V14.00,2013-04-30 02:52:00,
2013-04-29 20:53:00,52.9,19.0,0.00,ESE,114,0.0,0.0,26,0.00,,---,0.00,VWS V14.00,2013-04-30 02:53:00,
2013-04-29 20:54:00,52.9,19.0,0.00,ESE,114,0.0,0.0,26,0.00,,---,0.00,VWS V14.00,2013-04-30 02:54:00,
2013-04-29 20:55:00,52.9,19.0,0.00,ESE,112,0.0,0.0,26,0.00,,---,0.00,VWS V14.00,2013-04-30 02:55:00,
2013-04-29 20:57:00,52.9,19.0,0.00,ENE,57,0.0,0.0,26,0.00,,---,0.00,VWS V14.00,2013-04-30 02:57:00,
2013-04-29 20:59:00,52.5,18.6,0.00,NE,46,2.7,3.6,26,0.00,,---,0.00,VWS V14.00,2013-04-30 02:59:00,
2013-04-29 21:00:00,52.5,18.6,0.00,East,93,3.1,5.8,26,0.00,,---,0.00,VWS V14.00,2013-04-30 03:00:00,
2013-04-29 21:01:00,52.3,18.5,0.00,ENE,57,4.0,5.8,26,0.00,,---,0.00,VWS V14.00,2013-04-30 03:01:00,
2013-04-29 21:02:00,52.3,18.5,0.00,East,92,2.2,2.7,26,0.00,,---,0.00,VWS V14.00,2013-04-30 03:02:00,
2013-04-29 21:04:00,52.2,18.3,0.00,SSE,149,0.0,2.2,26,0.00,,---,0.00,VWS V14.00,2013-04-30 03:04:00,
2013-04-29 21:05:00,52.0,18.2,0.00,ESE,119,2.7,2.7,26,0.00,,---,0.00,VWS V14.00,2013-04-30 03:05:00,
2013-04-29 21:06:00,52.0,18.2,0.00,ESE,119,0.0,2.7,26,0.00,,---,0.00,VWS V14.00,2013-04-30 03:06:00,
2013-04-29 21:07:00,52.0,18.2,0.00,ESE,115,0.0,0.0,26,0.00,,---,0.00,VWS V14.00,2013-04-30 03:07:00,
2013-04-29 21:09:00,51.8,18.0,0.00,ESE,110,0.0,2.7,26,0.00,,---,0.00,VWS V14.00,2013-04-30 03:09:00,
2013-04-29 21:10:00,51.8,18.0,0.00,ESE,110,0.0,0.0,26,0.00,,---,0.00,VWS V14.00,2013-04-30 03:10:00,
2013-04-29 21:11:00,51.8,18.0,0.00,SSE,147,3.1,3.1,26,0.00,,---,0.00,VWS V14.00,2013-04-30 03:11:00,
2013-04-29 21:12:00,51.6,17.9,0.00,ESE,115,3.1,4.0,26,0.00,,---,0.00,VWS V14.00,2013-04-30 03:12:00,
2013-04-29 21:14:00,51.6,17.9,0.00,East,86,0.0,3.1,26,0.00,,---,0.00,VWS V14.00,2013-04-30 03:14:00,
2013-04-29 21:15:00,51.6,17.9,0.00,East,86,0.0,0.0,26,0.00,,---,0.00,VWS V14.00,2013-04-30 03:15:00,
2013-04-29 21:16:00,51.4,17.7,0.00,NE,42,0.0,0.0,26,0.00,,---,0.00,VWS V14.00,2013-04-30 03:16:00,
2013-04-29 21:18:00,51.4,18.6,0.00,East,81,2.7,2.7,27,0.00,,---,0.00,VWS V14.00,2013-04-30 03:18:00,
2013-04-29 21:19:00,51.4,17.7,0.00,ESE,109,3.6,3.6,26,0.00,,---,0.00,VWS V14.00,2013-04-30 03:19:00,
2013-04-29 21:20:00,51.3,17.6,0.00,ESE,104,0.0,3.6,26,0.00,,---,0.00,VWS V14.00,2013-04-30 03:20:00,
2013-04-29 21:22:00,51.3,17.6,0.00,SE,136,0.0,0.0,26,0.00,,---,0.00,VWS V14.00,2013-04-30 03:22:00,
2013-04-29 21:23:00,51.3,17.6,0.00,SE,135,0.0,0.0,26,0.00,,---,0.00,VWS V14.00,2013-04-30 03:23:00,
2013-04-29 21:25:00,51.1,17.4,0.00,SE,132,0.0,2.7,26,0.00,,---,0.00,VWS V14.00,2013-04-30 03:25:00,
2013-04-29 21:27:00,51.1,17.4,0.00,SE,132,0.0,0.0,26,0.00,,---,0.00,VWS V14.00,2013-04-30 03:27:00,
2013-04-29 21:28:00,51.1,17.4,0.00,SE,127,0.0,0.0,26,0.00,,---,0.00,VWS V14.00,2013-04-30 03:28:00,
2013-04-29 21:30:00,50.9,18.1,0.00,SE,133,0.0,0.0,27,0.00,,---,0.00,VWS V14.00,2013-04-30 03:30:00,
2013-04-29 21:32:00,50.7,18.0,0.00,ESE,112,8.1,8.1,27,0.00,,---,0.00,VWS V14.00,2013-04-30 03:32:00,
2013-04-29 21:33:00,50.7,18.0,0.00,ESE,120,4.0,8.1,27,0.00,,---,0.00,VWS V14.00,2013-04-30 03:33:00,
2013-04-29 21:35:00,50.7,17.1,0.00,ESE,110,4.0,4.9,26,0.00,,---,0.00,VWS V14.00,2013-04-30 03:35:00,
2013-04-29 21:37:00,50.5,17.0,0.00,ESE,112,0.0,0.0,26,0.00,,---,0.00,VWS V14.00,2013-04-30 03:37:00,
2013-04-29 21:38:00,50.5,17.0,0.00,ESE,112,0.0,0.0,26,0.00,,---,0.00,VWS V14.00,2013-04-30 03:38:00,
2013-04-29 21:40:00,50.4,17.7,0.00,ESE,112,0.0,0.0,27,0.00,,---,0.00,VWS V14.00,2013-04-30 03:40:00,
2013-04-29 21:41:00,50.4,17.7,0.00,NW,310,2.7,2.7,27,0.00,,---,0.00,VWS V14.00,2013-04-30 03:41:00,
2013-04-29 21:42:00,50.2,17.5,0.00,NW,320,0.0,0.0,27,0.00,,---,0.00,VWS V14.00,2013-04-30 03:42:00,
2013-04-29 21:43:00,50.2,17.5,0.00,NE,51,2.7,3.1,27,0.00,,---,0.00,VWS V14.00,2013-04-30 03:43:00,
2013-04-29 21:45:00,50.2,16.6,0.00,NE,51,0.0,0.0,26,0.00,,---,0.00,VWS V14.00,2013-04-30 03:45:00,
2013-04-29 21:46:00,50.2,17.5,0.00,WSW,246,0.0,0.0,27,0.00,,---,0.00,VWS V14.00,2013-04-30 03:46:00,
2013-04-29 21:48:00,50.0,17.4,0.00,SE,146,0.0,3.6,27,0.00,,---,0.00,VWS V14.00,2013-04-30 03:48:00,
2013-04-29 21:50:00,50.0,17.4,0.00,ESE,117,0.0,0.0,27,0.00,,---,0.00,VWS V14.00,2013-04-30 03:50:00,
2013-04-29 21:51:00,49.8,17.2,0.00,ESE,117,0.0,0.0,27,0.00,,---,0.00,VWS V14.00,2013-04-30 03:51:00,
2013-04-29 21:53:00,49.8,17.2,0.00,ESE,114,5.4,5.8,27,0.00,,---,0.00,VWS V14.00,2013-04-30 03:53:00,
2013-04-29 21:54:00,49.6,17.0,0.00,ESE,118,0.0,3.1,27,0.00,,---,0.00,VWS V14.00,2013-04-30 03:54:00,
2013-04-29 21:55:00,49.6,17.0,0.00,ESE,118,0.0,0.0,27,0.00,,---,0.00,VWS V14.00,2013-04-30 03:55:00,
2013-04-29 21:56:00,49.6,17.0,0.00,ESE,118,0.0,0.0,27,0.00,,---,0.00,VWS V14.00,2013-04-30 03:56:00,
2013-04-29 21:58:00,49.5,16.9,0.00,SE,124,0.0,0.0,27,0.00,,---,0.00,VWS V14.00,2013-04-30 03:58:00,
2013-04-29 21:59:00,49.5,16.9,0.00,SE,124,0.0,0.0,27,0.00,,---,0.00,VWS V14.00,2013-04-30 03:59:00,
2013-04-29 22:00:00,49.5,16.9,0.00,ESE,123,0.0,0.0,27,0.00,,---,0.00,VWS V14.00,2013-04-30 04:00:00,
2013-04-29 22:01:00,49.5,16.9,0.00,ESE,123,0.0,0.0,27,0.00,,---,0.00,VWS V14.00,2013-04-30 04:01:00,
2013-04-29 22:06:00,49.1,16.6,0.00,SE,125,0.0,0.0,27,0.00,,---,0.00,VWS V14.00,2013-04-30 04:06:00,
2013-04-29 22:11:00,48.7,16.3,0.00,SE,125,0.0,0.0,27,0.00,,---,0.00,VWS V14.00,2013-04-30 04:11:00,
2013-04-29 22:16:00,48.6,16.1,0.00,ESE,119,0.0,0.0,27,0.00,,---,0.00,VWS V14.00,2013-04-30 04:16:00,
2013-04-29 22:17:00,48.6,16.1,0.00,ESE,119,0.0,0.0,27,0.00,,---,0.00,VWS V14.00,2013-04-30 04:17:00,
2013-04-29 22:21:00,48.4,16.0,0.00,SW,219,0.0,0.0,27,0.00,,---,0.00,VWS V14.00,2013-04-30 04:21:00,
2013-04-29 22:22:00,48.4,16.0,0.00,WSW,252,0.0,0.0,27,0.00,,---,0.00,VWS V14.00,2013-04-30 04:22:00,
2013-04-29 22:26:00,48.0,15.6,0.00,WSW,254,0.0,0.0,27,0.00,,---,0.00,VWS V14.00,2013-04-30 04:26:00,
2013-04-29 22:27:00,48.0,15.6,0.00,WSW,252,0.0,0.0,27,0.00,,---,0.00,VWS V14.00,2013-04-30 04:27:00,
2013-04-29 22:31:00,47.7,15.3,0.00,WNW,283,0.0,0.0,27,0.00,,---,0.00,VWS V14.00,2013-04-30 04:31:00,
2013-04-29 22:32:00,47.7,15.3,0.00,WNW,283,0.0,0.0,27,0.00,,---,0.00,VWS V14.00,2013-04-30 04:32:00,
2013-04-29 22:36:00,47.5,16.0,0.00,West,279,0.0,0.0,28,0.00,,---,0.00,VWS V14.00,2013-04-30 04:36:00,
2013-04-29 22:37:00,47.5,16.0,0.00,WNW,284,0.0,0.0,28,0.00,,---,0.00,VWS V14.00,2013-04-30 04:37:00,
2013-04-29 22:41:00,47.3,15.9,0.00,West,277,0.0,0.0,28,0.00,,---,0.00,VWS V14.00,2013-04-30 04:41:00,
2013-04-29 22:42:00,47.3,15.9,0.00,West,279,0.0,0.0,28,0.00,,---,0.00,VWS V14.00,2013-04-30 04:42:00,
2013-04-29 22:46:00,47.1,15.7,0.00,SSW,192,0.0,0.0,28,0.00,,---,0.00,VWS V14.00,2013-04-30 04:46:00,
2013-04-29 22:47:00,47.1,15.7,0.00,SSW,198,0.0,0.0,28,0.00,,---,0.00,VWS V14.00,2013-04-30 04:47:00,
2013-04-29 22:51:00,46.9,15.6,0.00,SSW,209,0.0,0.0,28,0.00,,---,0.00,VWS V14.00,2013-04-30 04:51:00,
2013-04-29 22:52:00,46.9,15.6,0.00,SSW,209,0.0,0.0,28,0.00,,---,0.00,VWS V14.00,2013-04-30 04:52:00,
2013-04-29 22:53:00,46.9,15.6,0.00,SSW,209,0.0,0.0,28,0.00,,---,0.00,VWS V14.00,2013-04-30 04:53:00,
2013-04-29 22:56:00,46.8,15.4,0.00,SSW,209,0.0,0.0,28,0.00,,---,0.00,VWS V14.00,2013-04-30 04:56:00,
2013-04-29 22:57:00,46.8,15.4,0.00,SSW,208,0.0,0.0,28,0.00,,---,0.00,VWS V14.00,2013-04-30 04:57:00,
2013-04-29 22:59:00,46.6,15.2,0.00,SSW,208,0.0,0.0,28,0.00,,---,0.00,VWS V14.00,2013-04-30 04:59:00,
2013-04-29 23:02:00,46.6,15.2,0.00,ENE,64,5.4,5.8,28,0.00,,---,0.00,VWS V14.00,2013-04-30 05:02:00,
2013-04-29 23:04:00,46.6,15.2,0.00,ESE,112,0.0,0.0,28,0.00,,---,0.00,VWS V14.00,2013-04-30 05:04:00,
2013-04-29 23:07:00,46.4,15.1,0.00,WSW,242,0.0,0.0,28,0.00,,---,0.00,VWS V14.00,2013-04-30 05:07:00,
2013-04-29 23:09:00,46.4,15.1,0.00,ENE,59,2.7,5.8,28,0.00,,---,0.00,VWS V14.00,2013-04-30 05:09:00,
2013-04-29 23:12:00,46.4,15.1,0.00,ESE,111,3.6,3.6,28,0.00,,---,0.00,VWS V14.00,2013-04-30 05:12:00,
2013-04-29 23:14:00,46.2,14.9,0.00,SW,223,0.0,0.0,28,0.00,,---,0.00,VWS V14.00,2013-04-30 05:14:00,
2013-04-29 23:17:00,46.0,14.8,0.00,SW,226,0.0,0.0,28,0.00,,---,0.00,VWS V14.00,2013-04-30 05:17:00,
2013-04-29 23:19:00,46.0,14.8,0.00,WSW,245,0.0,0.0,28,0.00,,---,0.00,VWS V14.00,2013-04-30 05:19:00,
2013-04-29 23:22:00,45.9,14.6,0.00,West,265,2.2,2.2,28,0.00,,---,0.00,VWS V14.00,2013-04-30 05:22:00,
2013-04-29 23:25:00,45.7,14.5,0.00,WSW,246,0.0,0.0,28,0.00,,---,0.00,VWS V14.00,2013-04-30 05:25:00,
2013-04-29 23:27:00,45.5,14.3,0.00,WSW,248,0.0,0.0,28,0.00,,---,0.00,VWS V14.00,2013-04-30 05:27:00,
2013-04-29 23:28:00,45.5,14.3,0.00,WSW,247,0.0,0.0,28,0.00,,---,0.00,VWS V14.00,2013-04-30 05:28:00,
2013-04-29 23:30:00,45.3,14.1,0.00,WSW,248,0.0,0.0,28,0.00,,---,0.00,VWS V14.00,2013-04-30 05:30:00,
2013-04-29 23:33:00,45.1,14.8,0.00,WSW,247,0.0,0.0,29,0.00,,---,0.00,VWS V14.00,2013-04-30 05:33:00,
2013-04-29 23:35:00,45.0,14.6,0.00,WNW,287,0.0,3.1,29,0.00,,---,0.00,VWS V14.00,2013-04-30 05:35:00,
2013-04-29 23:38:00,44.8,14.5,0.00,WNW,294,0.0,3.1,29,0.00,,---,0.00,VWS V14.00,2013-04-30 05:38:00,
2013-04-29 23:40:00,44.8,14.5,0.00,West,262,0.0,0.0,29,0.00,,---,0.00,VWS V14.00,2013-04-30 05:40:00,
2013-04-29 23:43:00,44.6,14.3,0.00,WNW,300,0.0,3.6,29,0.00,,---,0.00,VWS V14.00,2013-04-30 05:43:00,
2013-04-29 23:45:00,44.6,14.3,0.00,WNW,300,0.0,0.0,29,0.00,,---,0.00,VWS V14.00,2013-04-30 05:45:00,
2013-04-29 23:48:00,44.6,14.3,0.00,WNW,293,0.0,0.0,29,0.00,,---,0.00,VWS V14.00,2013-04-30 05:48:00,
2013-04-29 23:50:00,44.4,14.2,0.00,WNW,299,0.0,0.0,29,0.00,,---,0.00,VWS V14.00,2013-04-30 05:50:00,
2013-04-29 23:53:00,44.2,14.0,0.00,WNW,296,0.0,0.0,29,0.00,,---,0.00,VWS V14.00,2013-04-30 05:53:00,
2013-04-29 23:55:00,44.2,14.0,0.00,WNW,291,0.0,0.0,29,0.00,,---,0.00,VWS V14.00,2013-04-30 05:55:00,
2013-04-29 23:58:00,44.1,13.9,0.00,WNW,296,0.0,0.0,29,0.00,,---,0.00,VWS V14.00,2013-04-30 05:58:00,